Time,TemperatureF,DewpointF,PressureIn,WindDirection,WindDirectionDegrees,WindSpeedMPH,WindSpeedGustMPH,Humidity,HourlyPrecipIn,Conditions,Clouds,dailyrainin,SoftwareType,DateUTC
2013-05-07 00:00:00,62.9,44.5,30.10,NE,45,0.0,0.0,51,0.00,,,0.00,VWS V14.01,2013-05-07 05:00:00,
2013-05-07 00:01:00,62.9,44.5,30.10,NE,45,0.0,0.0,51,0.00,,,0.00,VWS V14.01,2013-05-07 05:01:00,
2013-05-07 00:02:00,62.7,44.8,30.09,NE,45,0.0,0.0,52,0.00,,,0.00,VWS V14.01,2013-05-07 05:02:00,
2013-05-07 00:03:00,62.7,44.8,30.10,NE,45,0.0,0.0,52,0.00,,,0.00,VWS V14.01,2013-05-07 05:03:00,
2013-05-07 00:04:00,62.6,45.2,30.10,NE,45,0.0,0.0,53,0.00,,,0.00,VWS V14.01,2013-05-07 05:04:00,
2013-05-07 00:05:00,62.6,45.2,30.10,NE,45,0.0,0.0,53,0.00,,,0.00,VWS V14.01,2013-05-07 05:05:00,
2013-05-07 00:06:00,62.6,45.2,30.10,NE,45,0.0,0.0,53,0.00,,,0.00,VWS V14.01,2013-05-07 05:06:00,
2013-05-07 00:07:00,62.4,44.6,30.10,NE,45,0.0,0.0,52,0.00,,,0.00,VWS V14.01,2013-05-07 05:07:00,
2013-05-07 00:08:00,62.2,44.4,30.10,NE,45,0.0,0.0,52,0.00,,,0.00,VWS V14.01,2013-05-07 05:08:00,
2013-05-07 00:09:00,62.2,44.4,30.09,NE,45,0.0,0.0,52,0.00,,,0.00,VWS V14.01,2013-05-07 05:09:00,
2013-05-07 00:10:00,62.2,44.4,30.10,NE,45,0.0,0.0,52,0.00,,,0.00,VWS V14.01,2013-05-07 05:10:00,
2013-05-07 00:11:00,62.2,44.4,30.10,NE,45,0.0,0.0,52,0.00,,,0.00,VWS V14.01,2013-05-07 05:11:00,
2013-05-07 00:12:00,61.8,44.0,30.09,NE,45,0.0,0.0,52,0.00,,,0.00,VWS V14.01,2013-05-07 05:12:00,
2013-05-07 00:13:00,61.7,43.9,30.09,NE,45,0.0,0.0,52,0.00,,,0.00,VWS V14.01,2013-05-07 05:13:00,
2013-05-07 00:14:00,61.7,43.9,30.09,NE,45,0.0,0.0,52,0.00,,,0.00,VWS V14.01,2013-05-07 05:14:00,
2013-05-07 00:15:00,61.7,43.9,30.10,NE,45,0.0,0.0,52,0.00,,,0.00,VWS V14.01,2013-05-07 05:15:00,
2013-05-07 00:16:00,61.7,43.9,30.10,NE,45,0.0,0.0,52,0.00,,,0.00,VWS V14.01,2013-05-07 05:16:00,
2013-05-07 00:17:00,61.5,43.7,30.09,NE,45,0.0,0.0,52,0.00,,,0.00,VWS V14.01,2013-05-07 05:17:00,
2013-05-07 00:18:00,61.5,43.7,30.09,NE,45,0.0,0.0,52,0.00,,,0.00,VWS V14.01,2013-05-07 05:18:00,
2013-05-07 00:19:00,61.5,43.7,30.10,NE,45,0.0,0.0,52,0.00,,,0.00,VWS V14.01,2013-05-07 05:19:00,
2013-05-07 00:20:00,61.5,43.7,30.09,NE,45,0.0,0.0,52,0.00,,,0.00,VWS V14.01,2013-05-07 05:20:00,
2013-05-07 00:21:00,61.5,43.7,30.09,NE,45,0.0,0.0,52,0.00,,,0.00,VWS V14.01,2013-05-07 05:21:00,
2013-05-07 00:22:00,61.5,43.7,30.10,NE,45,0.0,0.0,52,0.00,,,0.00,VWS V14.01,2013-05-07 05:22:00,
2013-05-07 00:23:00,61.3,43.5,30.10,NE,45,0.0,0.0,52,0.00,,,0.00,VWS V14.01,2013-05-07 05:23:00,
2013-05-07 00:24:00,61.3,44.0,30.09,NE,45,0.0,0.0,53,0.00,,,0.00,VWS V14.01,2013-05-07 05:24:00,
2013-05-07 00:25:00,61.3,44.0,30.10,NE,45,0.0,0.0,53,0.00,,,0.00,VWS V14.01,2013-05-07 05:25:00,
2013-05-07 00:26:00,61.3,44.0,30.10,NE,45,0.0,0.0,53,0.00,,,0.00,VWS V14.01,2013-05-07 05:26:00,
2013-05-07 00:27:00,61.1,44.3,30.10,ESE,112,8.0,8.0,54,0.00,,,0.00,VWS V14.01,2013-05-07 05:27:00,
2013-05-07 00:28:00,59.5,46.1,30.10,SE,135,0.0,8.0,61,0.00,,,0.00,VWS V14.01,2013-05-07 05:28:00,
2013-05-07 00:29:00,59.5,46.1,30.10,SE,135,0.0,0.0,61,0.00,,,0.00,VWS V14.01,2013-05-07 05:29:00,
2013-05-07 00:30:00,59.5,46.9,30.10,ESE,112,6.2,6.2,63,0.00,,,0.00,VWS V14.01,2013-05-07 05:30:00,
2013-05-07 00:31:00,59.5,46.9,30.10,ESE,112,6.2,6.2,63,0.00,,,0.00,VWS V14.01,2013-05-07 05:31:00,
2013-05-07 00:32:00,58.2,47.7,30.10,ESE,112,3.5,6.2,68,0.00,,,0.00,VWS V14.01,2013-05-07 05:32:00,
2013-05-07 00:33:00,58.2,47.7,30.10,ESE,112,3.5,3.5,68,0.00,,,0.00,VWS V14.01,2013-05-07 05:33:00,
2013-05-07 00:34:00,57.5,47.8,30.11,SE,135,4.4,4.4,70,0.00,,,0.00,VWS V14.01,2013-05-07 05:34:00,
2013-05-07 00:35:00,57.5,47.8,30.10,SE,135,4.4,4.4,70,0.00,,,0.00,VWS V14.01,2013-05-07 05:35:00,
2013-05-07 00:36:00,57.5,47.8,30.10,SE,135,4.4,4.4,70,0.00,,,0.00,VWS V14.01,2013-05-07 05:36:00,
2013-05-07 00:37:00,57.5,48.2,30.10,ESE,112,2.9,2.9,71,0.00,,,0.00,VWS V14.01,2013-05-07 05:37:00,
2013-05-07 00:38:00,57.5,48.2,30.10,East,90,1.7,2.9,71,0.00,,,0.00,VWS V14.01,2013-05-07 05:38:00,
2013-05-07 00:39:00,57.5,48.2,30.10,East,90,1.7,1.7,71,0.00,,,0.00,VWS V14.01,2013-05-07 05:39:00,
2013-05-07 00:40:00,57.5,48.2,30.10,East,90,1.7,1.7,71,0.00,,,0.00,VWS V14.01,2013-05-07 05:40:00,
2013-05-07 00:41:00,57.5,48.2,30.10,East,90,1.7,1.7,71,0.00,,,0.00,VWS V14.01,2013-05-07 05:41:00,
2013-05-07 00:42:00,57.7,48.4,30.10,East,90,1.1,1.1,71,0.00,,,0.00,VWS V14.01,2013-05-07 05:42:00,
2013-05-07 00:43:00,58.1,48.0,30.10,East,90,0.0,1.1,69,0.00,,,0.00,VWS V14.01,2013-05-07 05:43:00,
2013-05-07 00:44:00,58.1,48.0,30.10,East,90,0.0,0.0,69,0.00,,,0.00,VWS V14.01,2013-05-07 05:44:00,
2013-05-07 00:45:00,58.8,48.3,30.10,East,90,0.0,0.0,68,0.00,,,0.00,VWS V14.01,2013-05-07 05:45:00,
2013-05-07 00:46:00,58.8,48.3,30.10,East,90,0.0,0.0,68,0.00,,,0.00,VWS V14.01,2013-05-07 05:46:00,
2013-05-07 00:47:00,58.8,48.3,30.10,East,90,0.0,0.0,68,0.00,,,0.00,VWS V14.01,2013-05-07 05:47:00,
2013-05-07 00:48:00,58.8,48.3,30.10,East,90,0.0,0.0,68,0.00,,,0.00,VWS V14.01,2013-05-07 05:48:00,
2013-05-07 00:49:00,58.8,48.3,30.10,East,90,0.0,0.0,68,0.00,,,0.00,VWS V14.01,2013-05-07 05:49:00,
2013-05-07 00:50:00,58.8,48.3,30.10,East,90,0.0,0.0,68,0.00,,,0.00,VWS V14.01,2013-05-07 05:50:00,
2013-05-07 00:51:00,58.8,48.3,30.10,East,90,0.0,0.0,68,0.00,,,0.00,VWS V14.01,2013-05-07 05:51:00,
2013-05-07 00:52:00,58.8,47.9,30.10,East,90,0.0,0.0,67,0.00,,,0.00,VWS V14.01,2013-05-07 05:52:00,
2013-05-07 00:53:00,58.8,47.9,30.10,East,90,0.0,0.0,67,0.00,,,0.00,VWS V14.01,2013-05-07 05:53:00,
2013-05-07 00:54:00,58.8,47.9,30.10,East,90,0.0,0.0,67,0.00,,,0.00,VWS V14.01,2013-05-07 05:54:00,
2013-05-07 00:55:00,58.8,47.9,30.10,East,90,0.0,0.0,67,0.00,,,0.00,VWS V14.01,2013-05-07 05:55:00,
2013-05-07 00:56:00,58.8,47.9,30.10,East,90,0.0,0.0,67,0.00,,,0.00,VWS V14.01,2013-05-07 05:56:00,
2013-05-07 00:57:00,58.8,47.5,30.10,East,90,0.0,0.0,66,0.00,,,0.00,VWS V14.01,2013-05-07 05:57:00,
2013-05-07 00:58:00,59.1,47.8,30.10,East,90,0.0,0.0,66,0.00,,,0.00,VWS V14.01,2013-05-07 05:58:00,
2013-05-07 00:59:00,59.1,47.8,30.10,East,90,0.0,0.0,66,0.00,,,0.00,VWS V14.01,2013-05-07 05:59:00,
2013-05-07 01:00:00,59.1,47.8,30.10,East,90,0.0,0.0,66,0.00,,,0.00,VWS V14.01,2013-05-07 06:00:00,
2013-05-07 01:01:00,59.1,47.8,30.10,East,90,0.0,0.0,66,0.00,,,0.00,VWS V14.01,2013-05-07 06:01:00,
2013-05-07 01:02:00,59.5,47.7,30.10,East,90,0.0,0.0,65,0.00,,,0.00,VWS V14.01,2013-05-07 06:02:00,
2013-05-07 01:03:00,59.5,47.7,30.10,East,90,0.0,0.0,65,0.00,,,0.00,VWS V14.01,2013-05-07 06:03:00,
2013-05-07 01:04:00,59.5,47.7,30.10,East,90,0.0,0.0,65,0.00,,,0.00,VWS V14.01,2013-05-07 06:04:00,
2013-05-07 01:05:00,59.5,47.7,30.10,East,90,0.0,0.0,65,0.00,,,0.00,VWS V14.01,2013-05-07 06:05:00,
2013-05-07 01:06:00,59.5,47.7,30.10,East,90,0.0,0.0,65,0.00,,,0.00,VWS V14.01,2013-05-07 06:06:00,
2013-05-07 01:07:00,59.3,47.5,30.10,East,90,0.0,0.0,65,0.00,,,0.00,VWS V14.01,2013-05-07 06:07:00,
2013-05-07 01:08:00,59.3,47.5,30.10,East,90,0.0,0.0,65,0.00,,,0.00,VWS V14.01,2013-05-07 06:08:00,
2013-05-07 01:09:00,59.3,47.5,30.10,East,90,0.0,0.0,65,0.00,,,0.00,VWS V14.01,2013-05-07 06:09:00,
2013-05-07 01:10:00,59.3,47.5,30.10,East,90,0.0,0.0,65,0.00,,,0.00,VWS V14.01,2013-05-07 06:10:00,
2013-05-07 01:11:00,59.3,47.5,30.10,East,90,0.0,0.0,65,0.00,,,0.00,VWS V14.01,2013-05-07 06:11:00,
2013-05-07 01:12:00,59.3,47.5,30.10,East,90,0.0,0.0,65,0.00,,,0.00,VWS V14.01,2013-05-07 06:12:00,
2013-05-07 01:13:00,59.5,47.7,30.10,East,90,0.0,0.0,65,0.00,,,0.00,VWS V14.01,2013-05-07 06:13:00,
2013-05-07 01:14:00,59.5,47.7,30.10,East,90,0.0,0.0,65,0.00,,,0.00,VWS V14.01,2013-05-07 06:14:00,
2013-05-07 01:15:00,59.5,47.7,30.10,East,90,0.0,0.0,65,0.00,,,0.00,VWS V14.01,2013-05-07 06:15:00,
2013-05-07 01:16:00,59.5,47.7,30.10,East,90,0.0,0.0,65,0.00,,,0.00,VWS V14.01,2013-05-07 06:16:00,
2013-05-07 01:17:00,59.7,47.9,30.10,East,90,0.0,0.0,65,0.00,,,0.00,VWS V14.01,2013-05-07 06:17:00,
2013-05-07 01:18:00,59.7,47.9,30.10,East,90,0.0,0.0,65,0.00,,,0.00,VWS V14.01,2013-05-07 06:18:00,
2013-05-07 01:19:00,60.0,47.8,30.10,East,90,0.0,0.0,64,0.00,,,0.00,VWS V14.01,2013-05-07 06:19:00,
2013-05-07 01:20:00,60.0,47.8,30.10,East,90,0.0,0.0,64,0.00,,,0.00,VWS V14.01,2013-05-07 06:20:00,
2013-05-07 01:21:00,60.0,47.8,30.10,East,90,0.0,0.0,64,0.00,,,0.00,VWS V14.01,2013-05-07 06:21:00,
2013-05-07 01:22:00,60.4,47.8,30.10,East,90,0.0,0.0,63,0.00,,,0.00,VWS V14.01,2013-05-07 06:22:00,
2013-05-07 01:23:00,60.6,48.0,30.10,East,90,0.0,0.0,63,0.00,,,0.00,VWS V14.01,2013-05-07 06:23:00,
2013-05-07 01:24:00,60.6,48.0,30.10,East,90,0.0,0.0,63,0.00,,,0.00,VWS V14.01,2013-05-07 06:24:00,
2013-05-07 01:25:00,60.6,48.0,30.10,East,90,0.0,0.0,63,0.00,,,0.00,VWS V14.01,2013-05-07 06:25:00,
2013-05-07 01:26:00,60.6,48.0,30.10,East,90,0.0,0.0,63,0.00,,,0.00,VWS V14.01,2013-05-07 06:26:00,
2013-05-07 01:27:00,60.4,47.8,30.10,East,90,0.0,0.0,63,0.00,,,0.00,VWS V14.01,2013-05-07 06:27:00,
2013-05-07 01:28:00,60.4,47.8,30.10,East,90,0.0,0.0,63,0.00,,,0.00,VWS V14.01,2013-05-07 06:28:00,
2013-05-07 01:29:00,60.4,47.8,30.10,East,90,0.0,0.0,63,0.00,,,0.00,VWS V14.01,2013-05-07 06:29:00,
2013-05-07 01:30:00,60.6,48.0,30.10,East,90,0.0,0.0,63,0.00,,,0.00,VWS V14.01,2013-05-07 06:30:00,
2013-05-07 01:31:00,60.6,48.0,30.10,East,90,0.0,0.0,63,0.00,,,0.00,VWS V14.01,2013-05-07 06:31:00,
2013-05-07 01:32:00,60.6,47.5,30.10,East,90,0.0,0.0,62,0.00,,,0.00,VWS V14.01,2013-05-07 06:32:00,
2013-05-07 01:33:00,60.6,47.5,30.10,East,90,0.0,0.0,62,0.00,,,0.00,VWS V14.01,2013-05-07 06:33:00,
2013-05-07 01:34:00,60.4,47.8,30.10,East,90,0.0,0.0,63,0.00,,,0.00,VWS V14.01,2013-05-07 06:34:00,
2013-05-07 01:35:00,60.4,47.8,30.10,East,90,0.0,0.0,63,0.00,,,0.00,VWS V14.01,2013-05-07 06:35:00,
2013-05-07 01:36:00,60.4,47.8,30.10,East,90,0.0,0.0,63,0.00,,,0.00,VWS V14.01,2013-05-07 06:36:00,
2013-05-07 01:37:00,60.4,47.8,30.10,East,90,0.0,0.0,63,0.00,,,0.00,VWS V14.01,2013-05-07 06:37:00,
2013-05-07 01:38:00,60.0,47.4,30.10,East,90,0.0,0.0,63,0.00,,,0.00,VWS V14.01,2013-05-07 06:38:00,
2013-05-07 01:39:00,60.0,47.4,30.10,East,90,0.0,0.0,63,0.00,,,0.00,VWS V14.01,2013-05-07 06:39:00,
2013-05-07 01:40:00,60.0,47.4,30.10,East,90,0.0,0.0,63,0.00,,,0.00,VWS V14.01,2013-05-07 06:40:00,
2013-05-07 01:41:00,60.0,47.4,30.10,East,90,0.0,0.0,63,0.00,,,0.00,VWS V14.01,2013-05-07 06:41:00,
2013-05-07 01:42:00,60.0,47.4,30.10,East,90,0.0,0.0,63,0.00,,,0.00,VWS V14.01,2013-05-07 06:42:00,
2013-05-07 01:43:00,60.4,47.3,30.10,East,90,0.0,0.0,62,0.00,,,0.00,VWS V14.01,2013-05-07 06:43:00,
2013-05-07 01:44:00,60.4,47.3,30.10,East,90,0.0,0.0,62,0.00,,,0.00,VWS V14.01,2013-05-07 06:44:00,
2013-05-07 01:45:00,60.0,47.4,30.10,East,90,0.0,0.0,63,0.00,,,0.00,VWS V14.01,2013-05-07 06:45:00,
2013-05-07 01:46:00,60.0,47.4,30.10,East,90,0.0,0.0,63,0.00,,,0.00,VWS V14.01,2013-05-07 06:46:00,
2013-05-07 01:47:00,60.0,47.4,30.10,East,90,0.0,0.0,63,0.00,,,0.00,VWS V14.01,2013-05-07 06:47:00,
2013-05-07 01:48:00,60.0,47.4,30.10,East,90,0.0,0.0,63,0.00,,,0.00,VWS V14.01,2013-05-07 06:48:00,
2013-05-07 01:49:00,59.9,47.3,30.10,East,90,0.0,0.0,63,0.00,,,0.00,VWS V14.01,2013-05-07 06:49:00,
2013-05-07 01:50:00,59.9,47.3,30.10,East,90,0.0,0.0,63,0.00,,,0.00,VWS V14.01,2013-05-07 06:50:00,
2013-05-07 01:51:00,59.9,47.3,30.10,East,90,0.0,0.0,63,0.00,,,0.00,VWS V14.01,2013-05-07 06:51:00,
2013-05-07 01:52:00,59.7,47.1,30.10,East,90,0.0,0.0,63,0.00,,,0.00,VWS V14.01,2013-05-07 06:52:00,
2013-05-07 01:53:00,59.5,47.3,30.10,East,90,0.0,0.0,64,0.00,,,0.00,VWS V14.01,2013-05-07 06:53:00,
2013-05-07 01:54:00,59.5,47.3,30.10,East,90,0.0,0.0,64,0.00,,,0.00,VWS V14.01,2013-05-07 06:54:00,
2013-05-07 01:55:00,59.5,47.3,30.09,East,90,0.0,0.0,64,0.00,,,0.00,VWS V14.01,2013-05-07 06:55:00,
2013-05-07 01:56:00,59.5,47.3,30.09,East,90,0.0,0.0,64,0.00,,,0.00,VWS V14.01,2013-05-07 06:56:00,
2013-05-07 01:57:00,59.5,47.3,30.09,East,90,0.0,0.0,64,0.00,,,0.00,VWS V14.01,2013-05-07 06:57:00,
2013-05-07 01:58:00,59.5,47.3,30.09,East,90,0.0,0.0,64,0.00,,,0.00,VWS V14.01,2013-05-07 06:58:00,
2013-05-07 01:59:00,59.5,47.3,30.09,East,90,0.0,0.0,64,0.00,,,0.00,VWS V14.01,2013-05-07 06:59:00,
2013-05-07 02:00:00,59.5,47.3,30.09,East,90,0.0,0.0,64,0.00,,,0.00,VWS V14.01,2013-05-07 07:00:00,
2013-05-07 02:01:00,59.5,47.3,30.09,East,90,0.0,0.0,64,0.00,,,0.00,VWS V14.01,2013-05-07 07:01:00,
2013-05-07 02:02:00,59.3,47.1,30.09,East,90,0.0,0.0,64,0.00,,,0.00,VWS V14.01,2013-05-07 07:02:00,
2013-05-07 02:03:00,59.3,47.1,30.09,East,90,0.0,0.0,64,0.00,,,0.00,VWS V14.01,2013-05-07 07:03:00,
2013-05-07 02:04:00,59.3,47.1,30.10,East,90,0.0,0.0,64,0.00,,,0.00,VWS V14.01,2013-05-07 07:04:00,
2013-05-07 02:05:00,59.3,47.1,30.09,East,90,0.0,0.0,64,0.00,,,0.00,VWS V14.01,2013-05-07 07:05:00,
2013-05-07 02:06:00,59.3,47.1,30.09,East,90,0.0,0.0,64,0.00,,,0.00,VWS V14.01,2013-05-07 07:06:00,
2013-05-07 02:07:00,59.5,47.3,30.09,East,90,0.0,0.0,64,0.00,,,0.00,VWS V14.01,2013-05-07 07:07:00,
2013-05-07 02:08:00,59.5,47.3,30.09,East,90,0.0,0.0,64,0.00,,,0.00,VWS V14.01,2013-05-07 07:08:00,
2013-05-07 02:09:00,59.5,47.3,30.10,East,90,0.0,0.0,64,0.00,,,0.00,VWS V14.01,2013-05-07 07:09:00,
2013-05-07 02:10:00,59.5,47.3,30.09,East,90,0.0,0.0,64,0.00,,,0.00,VWS V14.01,2013-05-07 07:10:00,
2013-05-07 02:11:00,59.5,47.3,30.09,East,90,0.0,0.0,64,0.00,,,0.00,VWS V14.01,2013-05-07 07:11:00,
2013-05-07 02:12:00,59.5,47.3,30.09,East,90,0.0,0.0,64,0.00,,,0.00,VWS V14.01,2013-05-07 07:12:00,
2013-05-07 02:13:00,59.5,46.9,30.09,East,90,0.0,0.0,63,0.00,,,0.00,VWS V14.01,2013-05-07 07:13:00,
2013-05-07 02:14:00,59.5,46.9,30.09,East,90,0.0,0.0,63,0.00,,,0.00,VWS V14.01,2013-05-07 07:14:00,
2013-05-07 02:15:00,59.5,46.9,30.09,East,90,0.0,0.0,63,0.00,,,0.00,VWS V14.01,2013-05-07 07:15:00,
2013-05-07 02:16:00,59.5,46.9,30.09,East,90,0.0,0.0,63,0.00,,,0.00,VWS V14.01,2013-05-07 07:16:00,
2013-05-07 02:17:00,59.5,46.9,30.09,East,90,0.0,0.0,63,0.00,,,0.00,VWS V14.01,2013-05-07 07:17:00,
2013-05-07 02:18:00,59.5,46.9,30.09,East,90,0.0,0.0,63,0.00,,,0.00,VWS V14.01,2013-05-07 07:18:00,
2013-05-07 02:19:00,59.5,46.9,30.09,East,90,0.0,0.0,63,0.00,,,0.00,VWS V14.01,2013-05-07 07:19:00,
2013-05-07 02:20:00,59.5,46.9,30.09,East,90,0.0,0.0,63,0.00,,,0.00,VWS V14.01,2013-05-07 07:20:00,
2013-05-07 02:21:00,59.5,46.9,30.09,East,90,0.0,0.0,63,0.00,,,0.00,VWS V14.01,2013-05-07 07:21:00,
2013-05-07 02:22:00,59.5,46.9,30.09,East,90,0.0,0.0,63,0.00,,,0.00,VWS V14.01,2013-05-07 07:22:00,
2013-05-07 02:23:00,59.5,47.3,30.09,East,90,0.0,0.0,64,0.00,,,0.00,VWS V14.01,2013-05-07 07:23:00,
2013-05-07 02:24:00,59.5,47.3,30.10,East,90,0.0,0.0,64,0.00,,,0.00,VWS V14.01,2013-05-07 07:24:00,
2013-05-07 02:25:00,59.5,47.3,30.10,East,90,0.0,0.0,64,0.00,,,0.00,VWS V14.01,2013-05-07 07:25:00,
2013-05-07 02:26:00,59.5,47.3,30.10,East,90,0.0,0.0,64,0.00,,,0.00,VWS V14.01,2013-05-07 07:26:00,
2013-05-07 02:27:00,59.5,46.9,30.10,East,90,0.0,0.0,63,0.00,,,0.00,VWS V14.01,2013-05-07 07:27:00,
2013-05-07 02:28:00,59.3,47.1,30.10,East,90,0.0,0.0,64,0.00,,,0.00,VWS V14.01,2013-05-07 07:28:00,
2013-05-07 02:29:00,59.3,47.1,30.10,East,90,0.0,0.0,64,0.00,,,0.00,VWS V14.01,2013-05-07 07:29:00,
2013-05-07 02:30:00,59.3,47.1,30.10,East,90,0.4,0.4,64,0.00,,,0.00,VWS V14.01,2013-05-07 07:30:00,
2013-05-07 02:31:00,59.3,47.1,30.10,East,90,0.4,0.4,64,0.00,,,0.00,VWS V14.01,2013-05-07 07:31:00,
2013-05-07 02:32:00,59.1,47.4,30.10,East,90,0.6,0.6,65,0.00,,,0.00,VWS V14.01,2013-05-07 07:32:00,
2013-05-07 02:33:00,59.1,47.4,30.10,East,90,0.6,0.6,65,0.00,,,0.00,VWS V14.01,2013-05-07 07:33:00,
2013-05-07 02:34:00,59.0,47.3,30.10,East,90,1.1,1.1,65,0.00,,,0.00,VWS V14.01,2013-05-07 07:34:00,
2013-05-07 02:35:00,59.0,47.3,30.10,East,90,1.1,1.1,65,0.00,,,0.00,VWS V14.01,2013-05-07 07:35:00,
2013-05-07 02:36:00,59.0,47.3,30.10,East,90,1.1,1.1,65,0.00,,,0.00,VWS V14.01,2013-05-07 07:36:00,
2013-05-07 02:37:00,58.8,47.1,30.10,East,90,0.0,0.0,65,0.00,,,0.00,VWS V14.01,2013-05-07 07:37:00,
2013-05-07 02:38:00,58.8,47.1,30.10,East,90,0.0,0.0,65,0.00,,,0.00,VWS V14.01,2013-05-07 07:38:00,
2013-05-07 02:39:00,58.8,47.1,30.10,East,90,0.0,0.0,65,0.00,,,0.00,VWS V14.01,2013-05-07 07:39:00,
2013-05-07 02:40:00,58.8,47.1,30.10,East,90,0.0,0.0,65,0.00,,,0.00,VWS V14.01,2013-05-07 07:40:00,
2013-05-07 02:41:00,58.8,47.1,30.10,East,90,0.0,0.0,65,0.00,,,0.00,VWS V14.01,2013-05-07 07:41:00,
2013-05-07 02:42:00,58.8,47.1,30.10,East,90,0.0,0.0,65,0.00,,,0.00,VWS V14.01,2013-05-07 07:42:00,
2013-05-07 02:43:00,58.8,47.1,30.10,East,90,0.0,0.0,65,0.00,,,0.00,VWS V14.01,2013-05-07 07:43:00,
2013-05-07 02:44:00,58.8,47.1,30.10,East,90,0.0,0.0,65,0.00,,,0.00,VWS V14.01,2013-05-07 07:44:00,
2013-05-07 02:45:00,58.8,47.1,30.10,East,90,0.0,0.0,65,0.00,,,0.00,VWS V14.01,2013-05-07 07:45:00,
2013-05-07 02:46:00,58.8,47.1,30.10,East,90,0.0,0.0,65,0.00,,,0.00,VWS V14.01,2013-05-07 07:46:00,
2013-05-07 02:47:00,58.6,46.9,30.10,East,90,0.0,0.0,65,0.00,,,0.00,VWS V14.01,2013-05-07 07:47:00,
2013-05-07 02:48:00,58.6,46.9,30.10,East,90,0.0,0.0,65,0.00,,,0.00,VWS V14.01,2013-05-07 07:48:00,
2013-05-07 02:49:00,58.2,46.9,30.10,East,90,0.0,0.0,66,0.00,,,0.00,VWS V14.01,2013-05-07 07:49:00,
2013-05-07 02:50:00,58.2,46.9,30.10,East,90,0.0,0.0,66,0.00,,,0.00,VWS V14.01,2013-05-07 07:50:00,
2013-05-07 02:51:00,58.2,46.9,30.10,East,90,0.0,0.0,66,0.00,,,0.00,VWS V14.01,2013-05-07 07:51:00,
2013-05-07 02:52:00,58.1,47.2,30.10,East,90,0.0,0.0,67,0.00,,,0.00,VWS V14.01,2013-05-07 07:52:00,
2013-05-07 02:53:00,57.9,47.4,30.10,East,90,0.0,0.0,68,0.00,,,0.00,VWS V14.01,2013-05-07 07:53:00,
2013-05-07 02:54:00,57.9,47.4,30.10,East,90,0.0,0.0,68,0.00,,,0.00,VWS V14.01,2013-05-07 07:54:00,
2013-05-07 02:55:00,57.7,47.2,30.10,East,90,0.0,0.0,68,0.00,,,0.00,VWS V14.01,2013-05-07 07:55:00,
2013-05-07 02:56:00,57.7,47.2,30.10,East,90,0.0,0.0,68,0.00,,,0.00,VWS V14.01,2013-05-07 07:56:00,
2013-05-07 02:57:00,57.7,47.2,30.10,East,90,0.0,0.0,68,0.00,,,0.00,VWS V14.01,2013-05-07 07:57:00,
2013-05-07 02:58:00,57.5,47.4,30.10,East,90,0.0,0.0,69,0.00,,,0.00,VWS V14.01,2013-05-07 07:58:00,
2013-05-07 02:59:00,57.5,47.4,30.10,East,90,0.0,0.0,69,0.00,,,0.00,VWS V14.01,2013-05-07 07:59:00,
2013-05-07 03:00:00,57.5,47.4,30.10,East,90,0.0,0.0,69,0.00,,,0.00,VWS V14.01,2013-05-07 08:00:00,
2013-05-07 03:01:00,57.5,47.4,30.10,East,90,0.0,0.0,69,0.00,,,0.00,VWS V14.01,2013-05-07 08:01:00,
2013-05-07 03:02:00,57.2,47.5,30.10,NE,45,0.0,0.0,70,0.00,,,0.00,VWS V14.01,2013-05-07 08:02:00,
2013-05-07 03:03:00,57.2,47.5,30.10,NE,45,0.0,0.0,70,0.00,,,0.00,VWS V14.01,2013-05-07 08:03:00,
2013-05-07 03:04:00,57.0,47.7,30.10,NE,45,0.0,0.0,71,0.00,,,0.00,VWS V14.01,2013-05-07 08:04:00,
2013-05-07 03:05:00,57.0,47.7,30.10,NE,45,0.0,0.0,71,0.00,,,0.00,VWS V14.01,2013-05-07 08:05:00,
2013-05-07 03:06:00,57.0,47.7,30.10,NE,45,0.0,0.0,71,0.00,,,0.00,VWS V14.01,2013-05-07 08:06:00,
2013-05-07 03:07:00,56.8,47.5,30.10,NE,45,0.0,0.0,71,0.00,,,0.00,VWS V14.01,2013-05-07 08:07:00,
2013-05-07 03:08:00,56.4,47.1,30.10,NE,45,0.0,0.0,71,0.00,,,0.00,VWS V14.01,2013-05-07 08:08:00,
2013-05-07 03:09:00,56.4,47.1,30.10,NE,45,0.0,0.0,71,0.00,,,0.00,VWS V14.01,2013-05-07 08:09:00,
2013-05-07 03:10:00,56.4,47.1,30.10,NE,45,0.0,0.0,71,0.00,,,0.00,VWS V14.01,2013-05-07 08:10:00,
2013-05-07 03:11:00,56.4,47.1,30.10,NE,45,0.0,0.0,71,0.00,,,0.00,VWS V14.01,2013-05-07 08:11:00,
2013-05-07 03:12:00,56.4,47.5,30.10,NE,45,0.0,0.0,72,0.00,,,0.00,VWS V14.01,2013-05-07 08:12:00,
2013-05-07 03:13:00,56.3,47.4,30.10,NE,45,0.0,0.0,72,0.00,,,0.00,VWS V14.01,2013-05-07 08:13:00,
2013-05-07 03:14:00,56.3,47.4,30.10,NE,45,0.0,0.0,72,0.00,,,0.00,VWS V14.01,2013-05-07 08:14:00,
2013-05-07 03:15:00,56.1,47.2,30.10,NE,45,0.0,0.0,72,0.00,,,0.00,VWS V14.01,2013-05-07 08:15:00,
2013-05-07 03:16:00,56.1,47.2,30.10,NE,45,0.0,0.0,72,0.00,,,0.00,VWS V14.01,2013-05-07 08:16:00,
2013-05-07 03:17:00,56.1,47.6,30.10,NE,45,0.0,0.0,73,0.00,,,0.00,VWS V14.01,2013-05-07 08:17:00,
2013-05-07 03:18:00,56.1,47.6,30.10,NE,45,0.0,0.0,73,0.00,,,0.00,VWS V14.01,2013-05-07 08:18:00,
2013-05-07 03:19:00,56.1,47.2,30.10,NE,45,0.0,0.0,72,0.00,,,0.00,VWS V14.01,2013-05-07 08:19:00,
2013-05-07 03:20:00,56.1,47.2,30.10,NE,45,0.0,0.0,72,0.00,,,0.00,VWS V14.01,2013-05-07 08:20:00,
2013-05-07 03:21:00,56.1,47.2,30.10,NE,45,0.0,0.0,72,0.00,,,0.00,VWS V14.01,2013-05-07 08:21:00,
2013-05-07 03:22:00,56.1,47.6,30.10,NE,45,0.0,0.0,73,0.00,,,0.00,VWS V14.01,2013-05-07 08:22:00,
2013-05-07 03:23:00,56.1,47.2,30.10,NE,45,0.0,0.0,72,0.00,,,0.00,VWS V14.01,2013-05-07 08:23:00,
2013-05-07 03:24:00,56.1,47.2,30.10,NE,45,0.0,0.0,72,0.00,,,0.00,VWS V14.01,2013-05-07 08:24:00,
2013-05-07 03:25:00,56.3,47.4,30.10,NE,45,0.0,0.0,72,0.00,,,0.00,VWS V14.01,2013-05-07 08:25:00,
2013-05-07 03:26:00,56.3,47.4,30.10,NE,45,0.0,0.0,72,0.00,,,0.00,VWS V14.01,2013-05-07 08:26:00,
2013-05-07 03:27:00,56.3,47.4,30.10,NE,45,0.0,0.0,72,0.00,,,0.00,VWS V14.01,2013-05-07 08:27:00,
2013-05-07 03:28:00,56.1,47.2,30.10,NE,45,0.0,0.0,72,0.00,,,0.00,VWS V14.01,2013-05-07 08:28:00,
2013-05-07 03:29:00,56.1,47.2,30.10,NE,45,0.0,0.0,72,0.00,,,0.00,VWS V14.01,2013-05-07 08:29:00,
2013-05-07 03:30:00,56.1,47.2,30.10,NE,45,0.0,0.0,72,0.00,,,0.00,VWS V14.01,2013-05-07 08:30:00,
2013-05-07 03:31:00,56.1,47.2,30.10,NE,45,0.0,0.0,72,0.00,,,0.00,VWS V14.01,2013-05-07 08:31:00,
2013-05-07 03:32:00,56.1,47.2,30.10,NE,45,0.0,0.0,72,0.00,,,0.00,VWS V14.01,2013-05-07 08:32:00,
2013-05-07 03:33:00,56.1,47.2,30.10,NE,45,0.0,0.0,72,0.00,,,0.00,VWS V14.01,2013-05-07 08:33:00,
2013-05-07 03:34:00,56.1,47.6,30.09,NE,45,0.0,0.0,73,0.00,,,0.00,VWS V14.01,2013-05-07 08:34:00,
2013-05-07 03:35:00,56.1,47.6,30.09,NE,45,0.0,0.0,73,0.00,,,0.00,VWS V14.01,2013-05-07 08:35:00,
2013-05-07 03:36:00,56.1,47.6,30.09,NE,45,0.0,0.0,73,0.00,,,0.00,VWS V14.01,2013-05-07 08:36:00,
2013-05-07 03:37:00,56.1,47.6,30.09,NE,45,0.0,0.0,73,0.00,,,0.00,VWS V14.01,2013-05-07 08:37:00,
2013-05-07 03:38:00,56.1,47.6,30.09,NE,45,0.0,0.0,73,0.00,,,0.00,VWS V14.01,2013-05-07 08:38:00,
2013-05-07 03:39:00,56.1,47.6,30.09,NE,45,0.0,0.0,73,0.00,,,0.00,VWS V14.01,2013-05-07 08:39:00,
2013-05-07 03:40:00,56.1,47.6,30.09,NE,45,0.0,0.0,73,0.00,,,0.00,VWS V14.01,2013-05-07 08:40:00,
2013-05-07 03:41:00,56.1,47.6,30.09,NE,45,0.0,0.0,73,0.00,,,0.00,VWS V14.01,2013-05-07 08:41:00,
2013-05-07 03:42:00,56.1,47.6,30.09,NE,45,0.0,0.0,73,0.00,,,0.00,VWS V14.01,2013-05-07 08:42:00,
2013-05-07 03:43:00,55.9,47.4,30.09,NE,45,0.0,0.0,73,0.00,,,0.00,VWS V14.01,2013-05-07 08:43:00,
2013-05-07 03:44:00,55.9,47.4,30.09,NE,45,0.0,0.0,73,0.00,,,0.00,VWS V14.01,2013-05-07 08:44:00,
2013-05-07 03:45:00,55.7,47.2,30.09,NE,45,0.0,0.0,73,0.00,,,0.00,VWS V14.01,2013-05-07 08:45:00,
2013-05-07 03:46:00,55.7,47.2,30.09,NE,45,0.0,0.0,73,0.00,,,0.00,VWS V14.01,2013-05-07 08:46:00,
2013-05-07 03:47:00,55.7,47.2,30.09,NE,45,0.0,0.0,73,0.00,,,0.00,VWS V14.01,2013-05-07 08:47:00,
2013-05-07 03:48:00,55.7,47.2,30.09,NE,45,0.0,0.0,73,0.00,,,0.00,VWS V14.01,2013-05-07 08:48:00,
2013-05-07 03:49:00,55.7,46.8,30.09,NE,45,0.0,0.0,72,0.00,,,0.00,VWS V14.01,2013-05-07 08:49:00,
2013-05-07 03:50:00,55.7,46.8,30.09,NE,45,0.0,0.0,72,0.00,,,0.00,VWS V14.01,2013-05-07 08:50:00,
2013-05-07 03:51:00,55.7,46.8,30.09,NE,45,0.0,0.0,72,0.00,,,0.00,VWS V14.01,2013-05-07 08:51:00,
2013-05-07 03:52:00,55.7,46.8,30.10,NE,45,0.0,0.0,72,0.00,,,0.00,VWS V14.01,2013-05-07 08:52:00,
2013-05-07 03:53:00,55.7,46.8,30.10,NE,45,0.0,0.0,72,0.00,,,0.00,VWS V14.01,2013-05-07 08:53:00,
2013-05-07 03:54:00,55.7,46.8,30.09,NE,45,0.0,0.0,72,0.00,,,0.00,VWS V14.01,2013-05-07 08:54:00,
2013-05-07 03:55:00,55.5,46.6,30.09,NE,45,0.0,0.0,72,0.00,,,0.00,VWS V14.01,2013-05-07 08:55:00,
2013-05-07 03:56:00,55.5,46.6,30.09,NE,45,0.0,0.0,72,0.00,,,0.00,VWS V14.01,2013-05-07 08:56:00,
2013-05-07 03:57:00,55.5,46.6,30.10,NE,45,0.0,0.0,72,0.00,,,0.00,VWS V14.01,2013-05-07 08:57:00,
2013-05-07 03:58:00,55.5,46.6,30.10,NE,45,0.0,0.0,72,0.00,,,0.00,VWS V14.01,2013-05-07 08:58:00,
2013-05-07 03:59:00,55.5,46.6,30.10,NE,45,0.0,0.0,72,0.00,,,0.00,VWS V14.01,2013-05-07 08:59:00,
2013-05-07 04:00:00,55.5,46.6,30.10,NE,45,0.0,0.0,72,0.00,,,0.00,VWS V14.01,2013-05-07 09:00:00,
2013-05-07 04:01:00,55.5,46.6,30.10,NE,45,0.0,0.0,72,0.00,,,0.00,VWS V14.01,2013-05-07 09:01:00,
2013-05-07 04:02:00,55.5,46.6,30.10,NE,45,0.0,0.0,72,0.00,,,0.00,VWS V14.01,2013-05-07 09:02:00,
2013-05-07 04:03:00,55.5,46.6,30.10,NE,45,0.0,0.0,72,0.00,,,0.00,VWS V14.01,2013-05-07 09:03:00,
2013-05-07 04:04:00,55.2,46.3,30.09,NE,45,0.0,0.0,72,0.00,,,0.00,VWS V14.01,2013-05-07 09:04:00,
2013-05-07 04:05:00,55.2,46.3,30.10,NE,45,0.0,0.0,72,0.00,,,0.00,VWS V14.01,2013-05-07 09:05:00,
2013-05-07 04:06:00,55.2,46.3,30.10,NE,45,0.0,0.0,72,0.00,,,0.00,VWS V14.01,2013-05-07 09:06:00,
2013-05-07 04:07:00,55.2,46.3,30.09,NE,45,0.0,0.0,72,0.00,,,0.00,VWS V14.01,2013-05-07 09:07:00,
2013-05-07 04:08:00,55.2,46.3,30.10,NE,45,0.0,0.0,72,0.00,,,0.00,VWS V14.01,2013-05-07 09:08:00,
2013-05-07 04:09:00,55.2,46.3,30.10,NE,45,0.0,0.0,72,0.00,,,0.00,VWS V14.01,2013-05-07 09:09:00,
2013-05-07 04:10:00,55.2,46.3,30.10,NE,45,0.0,0.0,72,0.00,,,0.00,VWS V14.01,2013-05-07 09:10:00,
2013-05-07 04:11:00,55.2,46.3,30.10,NE,45,0.0,0.0,72,0.00,,,0.00,VWS V14.01,2013-05-07 09:11:00,
2013-05-07 04:12:00,55.2,46.3,30.10,NE,45,0.0,0.0,72,0.00,,,0.00,VWS V14.01,2013-05-07 09:12:00,
2013-05-07 04:13:00,55.2,46.3,30.10,NE,45,0.0,0.0,72,0.00,,,0.00,VWS V14.01,2013-05-07 09:13:00,
2013-05-07 04:14:00,55.2,46.3,30.10,NE,45,0.0,0.0,72,0.00,,,0.00,VWS V14.01,2013-05-07 09:14:00,
2013-05-07 04:15:00,55.0,46.2,30.10,NE,45,0.0,0.0,72,0.00,,,0.00,VWS V14.01,2013-05-07 09:15:00,
2013-05-07 04:16:00,55.0,46.2,30.10,NE,45,0.0,0.0,72,0.00,,,0.00,VWS V14.01,2013-05-07 09:16:00,
2013-05-07 04:17:00,54.6,45.8,30.10,NE,45,0.0,0.0,72,0.00,,,0.00,VWS V14.01,2013-05-07 09:17:00,
2013-05-07 04:18:00,54.6,45.8,30.10,NE,45,0.0,0.0,72,0.00,,,0.00,VWS V14.01,2013-05-07 09:18:00,
2013-05-07 04:19:00,54.6,45.8,30.10,NE,45,0.0,0.0,72,0.00,,,0.00,VWS V14.01,2013-05-07 09:19:00,
2013-05-07 04:20:00,54.6,45.8,30.10,NE,45,0.0,0.0,72,0.00,,,0.00,VWS V14.01,2013-05-07 09:20:00,
2013-05-07 04:21:00,54.6,45.8,30.10,NE,45,0.0,0.0,72,0.00,,,0.00,VWS V14.01,2013-05-07 09:21:00,
2013-05-07 04:22:00,54.8,46.0,30.10,NE,45,0.0,0.0,72,0.00,,,0.00,VWS V14.01,2013-05-07 09:22:00,
2013-05-07 04:23:00,55.2,46.3,30.10,NE,45,0.0,0.0,72,0.00,,,0.00,VWS V14.01,2013-05-07 09:23:00,
2013-05-07 04:24:00,55.2,46.3,30.10,NE,45,0.0,0.0,72,0.00,,,0.00,VWS V14.01,2013-05-07 09:24:00,
2013-05-07 04:25:00,55.4,46.2,30.10,East,90,0.0,0.0,71,0.00,,,0.00,VWS V14.01,2013-05-07 09:25:00,
2013-05-07 04:26:00,55.4,46.2,30.10,East,90,0.0,0.0,71,0.00,,,0.00,VWS V14.01,2013-05-07 09:26:00,
2013-05-07 04:27:00,55.0,46.2,30.10,ESE,112,1.7,1.7,72,0.00,,,0.00,VWS V14.01,2013-05-07 09:27:00,
2013-05-07 04:28:00,55.0,46.2,30.10,ESE,112,1.7,1.7,72,0.00,,,0.00,VWS V14.01,2013-05-07 09:28:00,
2013-05-07 04:29:00,55.0,46.2,30.10,ESE,112,1.7,1.7,72,0.00,,,0.00,VWS V14.01,2013-05-07 09:29:00,
2013-05-07 04:30:00,55.0,46.2,30.10,ESE,112,1.7,1.7,72,0.00,,,0.00,VWS V14.01,2013-05-07 09:30:00,
2013-05-07 04:31:00,55.0,46.2,30.10,ESE,112,1.7,1.7,72,0.00,,,0.00,VWS V14.01,2013-05-07 09:31:00,
2013-05-07 04:32:00,55.0,46.5,30.10,ESE,112,0.0,1.7,73,0.00,,,0.00,VWS V14.01,2013-05-07 09:32:00,
2013-05-07 04:33:00,55.0,46.5,30.10,ESE,112,0.0,0.0,73,0.00,,,0.00,VWS V14.01,2013-05-07 09:33:00,
2013-05-07 04:34:00,54.6,46.1,30.10,ESE,112,0.0,0.0,73,0.00,,,0.00,VWS V14.01,2013-05-07 09:34:00,
2013-05-07 04:35:00,54.6,46.1,30.10,ESE,112,0.0,0.0,73,0.00,,,0.00,VWS V14.01,2013-05-07 09:35:00,
2013-05-07 04:36:00,54.6,46.1,30.10,ESE,112,0.0,0.0,73,0.00,,,0.00,VWS V14.01,2013-05-07 09:36:00,
2013-05-07 04:37:00,54.5,46.0,30.10,ESE,112,0.0,0.0,73,0.00,,,0.00,VWS V14.01,2013-05-07 09:37:00,
2013-05-07 04:38:00,54.6,46.1,30.10,ESE,112,0.0,0.0,73,0.00,,,0.00,VWS V14.01,2013-05-07 09:38:00,
2013-05-07 04:39:00,54.6,46.1,30.10,ESE,112,0.0,0.0,73,0.00,,,0.00,VWS V14.01,2013-05-07 09:39:00,
2013-05-07 04:40:00,54.6,46.1,30.10,ESE,112,0.0,0.0,73,0.00,,,0.00,VWS V14.01,2013-05-07 09:40:00,
2013-05-07 04:41:00,54.6,46.1,30.10,ESE,112,0.0,0.0,73,0.00,,,0.00,VWS V14.01,2013-05-07 09:41:00,
2013-05-07 04:42:00,54.8,46.3,30.10,ESE,112,0.0,0.0,73,0.00,,,0.00,VWS V14.01,2013-05-07 09:42:00,
2013-05-07 04:43:00,55.2,46.7,30.10,ESE,112,0.0,0.0,73,0.00,,,0.00,VWS V14.01,2013-05-07 09:43:00,
2013-05-07 04:44:00,55.2,46.7,30.10,ESE,112,0.0,0.0,73,0.00,,,0.00,VWS V14.01,2013-05-07 09:44:00,
2013-05-07 04:45:00,55.7,46.8,30.10,ESE,112,0.0,0.0,72,0.00,,,0.00,VWS V14.01,2013-05-07 09:45:00,
2013-05-07 04:46:00,55.7,46.8,30.10,ESE,112,0.0,0.0,72,0.00,,,0.00,VWS V14.01,2013-05-07 09:46:00,
2013-05-07 04:47:00,56.1,46.8,30.10,ESE,112,0.0,0.0,71,0.00,,,0.00,VWS V14.01,2013-05-07 09:47:00,
2013-05-07 04:48:00,56.1,46.8,30.10,ESE,112,0.0,0.0,71,0.00,,,0.00,VWS V14.01,2013-05-07 09:48:00,
2013-05-07 04:49:00,56.3,46.7,30.10,ESE,112,0.0,0.0,70,0.00,,,0.00,VWS V14.01,2013-05-07 09:49:00,
2013-05-07 04:50:00,56.3,46.7,30.10,ESE,112,0.0,0.0,70,0.00,,,0.00,VWS V14.01,2013-05-07 09:50:00,
2013-05-07 04:51:00,56.3,46.7,30.10,ESE,112,0.0,0.0,70,0.00,,,0.00,VWS V14.01,2013-05-07 09:51:00,
2013-05-07 04:52:00,56.1,46.5,30.10,ESE,112,0.0,0.0,70,0.00,,,0.00,VWS V14.01,2013-05-07 09:52:00,
2013-05-07 04:53:00,55.7,46.5,30.10,ESE,112,0.0,0.0,71,0.00,,,0.00,VWS V14.01,2013-05-07 09:53:00,
2013-05-07 04:54:00,55.7,46.5,30.10,ESE,112,0.0,0.0,71,0.00,,,0.00,VWS V14.01,2013-05-07 09:54:00,
2013-05-07 04:55:00,55.7,46.8,30.11,ESE,112,0.0,0.0,72,0.00,,,0.00,VWS V14.01,2013-05-07 09:55:00,
2013-05-07 04:56:00,55.7,46.8,30.11,ESE,112,0.0,0.0,72,0.00,,,0.00,VWS V14.01,2013-05-07 09:56:00,
2013-05-07 04:57:00,55.2,46.3,30.10,ESE,112,0.0,0.0,72,0.00,,,0.00,VWS V14.01,2013-05-07 09:57:00,
2013-05-07 04:58:00,54.5,45.7,30.11,ESE,112,0.0,0.0,72,0.00,,,0.00,VWS V14.01,2013-05-07 09:58:00,
2013-05-07 04:59:00,54.5,45.7,30.11,ESE,112,0.0,0.0,72,0.00,,,0.00,VWS V14.01,2013-05-07 09:59:00,
2013-05-07 05:00:00,54.5,45.7,30.11,ESE,112,0.0,0.0,72,0.00,,,0.00,VWS V14.01,2013-05-07 10:00:00,
2013-05-07 05:01:00,54.5,45.7,30.11,ESE,112,0.0,0.0,72,0.00,,,0.00,VWS V14.01,2013-05-07 10:01:00,
2013-05-07 05:02:00,53.9,45.8,30.10,ESE,112,0.0,0.0,74,0.00,,,0.00,VWS V14.01,2013-05-07 10:02:00,
2013-05-07 05:03:00,53.9,45.8,30.11,ESE,112,0.0,0.0,74,0.00,,,0.00,VWS V14.01,2013-05-07 10:03:00,
2013-05-07 05:04:00,54.1,46.0,30.11,ESE,112,0.0,0.0,74,0.00,,,0.00,VWS V14.01,2013-05-07 10:04:00,
2013-05-07 05:05:00,54.1,46.0,30.10,ESE,112,0.0,0.0,74,0.00,,,0.00,VWS V14.01,2013-05-07 10:05:00,
2013-05-07 05:06:00,54.1,46.0,30.10,ESE,112,0.0,0.0,74,0.00,,,0.00,VWS V14.01,2013-05-07 10:06:00,
2013-05-07 05:07:00,54.3,46.2,30.10,ESE,112,0.0,0.0,74,0.00,,,0.00,VWS V14.01,2013-05-07 10:07:00,
2013-05-07 05:08:00,54.3,46.6,30.10,ESE,112,0.0,0.0,75,0.00,,,0.00,VWS V14.01,2013-05-07 10:08:00,
2013-05-07 05:09:00,54.3,46.6,30.10,ESE,112,0.0,0.0,75,0.00,,,0.00,VWS V14.01,2013-05-07 10:09:00,
2013-05-07 05:10:00,54.1,46.4,30.10,ESE,112,0.0,0.0,75,0.00,,,0.00,VWS V14.01,2013-05-07 10:10:00,
2013-05-07 05:11:00,54.1,46.4,30.10,ESE,112,0.0,0.0,75,0.00,,,0.00,VWS V14.01,2013-05-07 10:11:00,
2013-05-07 05:12:00,53.7,46.3,30.10,ESE,112,0.0,0.0,76,0.00,,,0.00,VWS V14.01,2013-05-07 10:12:00,
2013-05-07 05:13:00,53.7,46.3,30.10,ESE,112,0.0,0.0,76,0.00,,,0.00,VWS V14.01,2013-05-07 10:13:00,
2013-05-07 05:14:00,53.7,46.3,30.10,ESE,112,0.0,0.0,76,0.00,,,0.00,VWS V14.01,2013-05-07 10:14:00,
2013-05-07 05:15:00,53.7,46.3,30.10,ESE,112,0.0,0.0,76,0.00,,,0.00,VWS V14.01,2013-05-07 10:15:00,
2013-05-07 05:16:00,53.7,46.3,30.10,ESE,112,0.0,0.0,76,0.00,,,0.00,VWS V14.01,2013-05-07 10:16:00,
2013-05-07 05:17:00,53.4,46.0,30.10,ESE,112,0.0,0.0,76,0.00,,,0.00,VWS V14.01,2013-05-07 10:17:00,
2013-05-07 05:18:00,53.4,46.0,30.10,ESE,112,0.0,0.0,76,0.00,,,0.00,VWS V14.01,2013-05-07 10:18:00,
2013-05-07 05:19:00,53.4,46.0,30.10,ESE,112,0.0,0.0,76,0.00,,,0.00,VWS V14.01,2013-05-07 10:19:00,
2013-05-07 05:20:00,53.4,46.0,30.10,ESE,112,0.0,0.0,76,0.00,,,0.00,VWS V14.01,2013-05-07 10:20:00,
2013-05-07 05:21:00,53.4,46.0,30.10,ESE,112,0.0,0.0,76,0.00,,,0.00,VWS V14.01,2013-05-07 10:21:00,
2013-05-07 05:22:00,53.2,45.8,30.10,ESE,112,0.0,0.0,76,0.00,,,0.00,VWS V14.01,2013-05-07 10:22:00,
2013-05-07 05:23:00,53.2,46.2,30.10,ESE,112,0.0,0.0,77,0.00,,,0.00,VWS V14.01,2013-05-07 10:23:00,
2013-05-07 05:24:00,53.2,46.2,30.10,ESE,112,0.0,0.0,77,0.00,,,0.00,VWS V14.01,2013-05-07 10:24:00,
2013-05-07 05:25:00,53.4,46.4,30.10,ESE,112,0.0,0.0,77,0.00,,,0.00,VWS V14.01,2013-05-07 10:25:00,
2013-05-07 05:26:00,53.4,46.4,30.10,ESE,112,0.0,0.0,77,0.00,,,0.00,VWS V14.01,2013-05-07 10:26:00,
2013-05-07 05:27:00,53.7,46.7,30.10,ESE,112,0.0,0.0,77,0.00,,,0.00,VWS V14.01,2013-05-07 10:27:00,
2013-05-07 05:28:00,53.7,46.7,30.10,ESE,112,0.0,0.0,77,0.00,,,0.00,VWS V14.01,2013-05-07 10:28:00,
2013-05-07 05:29:00,53.7,46.7,30.11,ESE,112,0.0,0.0,77,0.00,,,0.00,VWS V14.01,2013-05-07 10:29:00,
2013-05-07 05:30:00,53.9,46.5,30.11,ESE,112,0.0,0.0,76,0.00,,,0.00,VWS V14.01,2013-05-07 10:30:00,
2013-05-07 05:31:00,53.9,46.5,30.11,ESE,112,0.0,0.0,76,0.00,,,0.00,VWS V14.01,2013-05-07 10:31:00,
2013-05-07 05:32:00,54.1,46.7,30.11,ESE,112,0.8,0.8,76,0.00,,,0.00,VWS V14.01,2013-05-07 10:32:00,
2013-05-07 05:33:00,54.1,46.7,30.11,ESE,112,0.8,0.8,76,0.00,,,0.00,VWS V14.01,2013-05-07 10:33:00,
2013-05-07 05:34:00,54.1,47.1,30.11,ESE,112,0.0,0.8,77,0.00,,,0.00,VWS V14.01,2013-05-07 10:34:00,
2013-05-07 05:35:00,54.1,47.1,30.11,ESE,112,0.0,0.0,77,0.00,,,0.00,VWS V14.01,2013-05-07 10:35:00,
2013-05-07 05:36:00,54.1,47.1,30.11,ESE,112,0.0,0.0,77,0.00,,,0.00,VWS V14.01,2013-05-07 10:36:00,
2013-05-07 05:37:00,53.9,46.9,30.11,ESE,112,0.0,0.0,77,0.00,,,0.00,VWS V14.01,2013-05-07 10:37:00,
2013-05-07 05:38:00,53.7,47.0,30.11,ESE,112,0.0,0.0,78,0.00,,,0.00,VWS V14.01,2013-05-07 10:38:00,
2013-05-07 05:39:00,53.7,47.0,30.11,ESE,112,0.0,0.0,78,0.00,,,0.00,VWS V14.01,2013-05-07 10:39:00,
2013-05-07 05:40:00,53.6,46.9,30.11,ESE,112,0.0,0.0,78,0.00,,,0.00,VWS V14.01,2013-05-07 10:40:00,
2013-05-07 05:41:00,53.6,46.9,30.11,ESE,112,0.0,0.0,78,0.00,,,0.00,VWS V14.01,2013-05-07 10:41:00,
2013-05-07 05:42:00,53.6,46.9,30.11,ESE,112,0.0,0.0,78,0.00,,,0.00,VWS V14.01,2013-05-07 10:42:00,
2013-05-07 05:43:00,53.4,46.7,30.11,ESE,112,0.0,0.0,78,0.00,,,0.00,VWS V14.01,2013-05-07 10:43:00,
2013-05-07 05:44:00,53.4,46.7,30.11,ESE,112,0.0,0.0,78,0.00,,,0.00,VWS V14.01,2013-05-07 10:44:00,
2013-05-07 05:45:00,53.2,46.5,30.11,ESE,112,0.0,0.0,78,0.00,,,0.00,VWS V14.01,2013-05-07 10:45:00,
2013-05-07 05:46:00,53.2,46.5,30.11,ESE,112,0.0,0.0,78,0.00,,,0.00,VWS V14.01,2013-05-07 10:46:00,
2013-05-07 05:47:00,52.7,46.0,30.11,ESE,112,0.0,0.0,78,0.00,,,0.00,VWS V14.01,2013-05-07 10:47:00,
2013-05-07 05:48:00,52.7,46.0,30.11,ESE,112,0.0,0.0,78,0.00,,,0.00,VWS V14.01,2013-05-07 10:48:00,
2013-05-07 05:49:00,52.3,45.7,30.11,ESE,112,0.0,0.0,78,0.00,,,0.00,VWS V14.01,2013-05-07 10:49:00,
2013-05-07 05:50:00,52.3,45.7,30.11,ESE,112,0.0,0.0,78,0.00,,,0.00,VWS V14.01,2013-05-07 10:50:00,
2013-05-07 05:51:00,52.3,45.7,30.11,ESE,112,0.0,0.0,78,0.00,,,0.00,VWS V14.01,2013-05-07 10:51:00,
2013-05-07 05:52:00,52.1,45.8,30.11,ESE,112,0.0,0.0,79,0.00,,,0.00,VWS V14.01,2013-05-07 10:52:00,
2013-05-07 05:53:00,52.1,45.8,30.11,ESE,112,0.0,0.0,79,0.00,,,0.00,VWS V14.01,2013-05-07 10:53:00,
2013-05-07 05:54:00,52.1,45.8,30.11,ESE,112,0.0,0.0,79,0.00,,,0.00,VWS V14.01,2013-05-07 10:54:00,
2013-05-07 05:55:00,52.1,45.8,30.11,ESE,112,0.0,0.0,79,0.00,,,0.00,VWS V14.01,2013-05-07 10:55:00,
2013-05-07 05:56:00,52.1,45.8,30.11,ESE,112,0.0,0.0,79,0.00,,,0.00,VWS V14.01,2013-05-07 10:56:00,
2013-05-07 05:57:00,51.9,45.6,30.11,ESE,112,0.0,0.0,79,0.00,,,0.00,VWS V14.01,2013-05-07 10:57:00,
2013-05-07 05:58:00,52.1,45.8,30.11,ESE,112,0.0,0.0,79,0.00,,,0.00,VWS V14.01,2013-05-07 10:58:00,
2013-05-07 05:59:00,52.1,45.8,30.11,ESE,112,0.0,0.0,79,0.00,,,0.00,VWS V14.01,2013-05-07 10:59:00,
2013-05-07 06:00:00,52.1,45.8,30.11,ESE,112,0.0,0.0,79,0.00,,,0.00,VWS V14.01,2013-05-07 11:00:00,
2013-05-07 06:01:00,52.1,45.8,30.11,ESE,112,0.0,0.0,79,0.00,,,0.00,VWS V14.01,2013-05-07 11:01:00,
2013-05-07 06:02:00,52.8,46.8,30.11,ESE,112,0.0,0.0,80,0.00,,,0.00,VWS V14.01,2013-05-07 11:02:00,
2013-05-07 06:03:00,52.8,46.8,30.11,ESE,112,0.0,0.0,80,0.00,,,0.00,VWS V14.01,2013-05-07 11:03:00,
2013-05-07 06:04:00,53.2,46.9,30.11,ESE,112,0.0,0.0,79,0.00,,,0.00,VWS V14.01,2013-05-07 11:04:00,
2013-05-07 06:05:00,53.2,46.9,30.11,ESE,112,0.0,0.0,79,0.00,,,0.00,VWS V14.01,2013-05-07 11:05:00,
2013-05-07 06:06:00,53.2,46.9,30.11,ESE,112,0.0,0.0,79,0.00,,,0.00,VWS V14.01,2013-05-07 11:06:00,
2013-05-07 06:07:00,53.2,46.9,30.11,ESE,112,0.0,0.0,79,0.00,,,0.00,VWS V14.01,2013-05-07 11:07:00,
2013-05-07 06:08:00,52.8,46.5,30.11,ESE,112,0.0,0.0,79,0.00,,,0.00,VWS V14.01,2013-05-07 11:08:00,
2013-05-07 06:09:00,52.8,46.5,30.11,ESE,112,0.0,0.0,79,0.00,,,0.00,VWS V14.01,2013-05-07 11:09:00,
2013-05-07 06:10:00,52.8,46.5,30.11,ESE,112,0.0,0.0,79,0.00,,,0.00,VWS V14.01,2013-05-07 11:10:00,
2013-05-07 06:11:00,52.8,46.5,30.11,ESE,112,0.0,0.0,79,0.00,,,0.00,VWS V14.01,2013-05-07 11:11:00,
2013-05-07 06:12:00,53.2,47.2,30.10,ESE,112,0.0,0.0,80,0.00,,,0.00,VWS V14.01,2013-05-07 11:12:00,
2013-05-07 06:13:00,53.2,46.9,30.11,ESE,112,0.0,0.0,79,0.00,,,0.00,VWS V14.01,2013-05-07 11:13:00,
2013-05-07 06:14:00,53.2,46.9,30.10,ESE,112,0.0,0.0,79,0.00,,,0.00,VWS V14.01,2013-05-07 11:14:00,
2013-05-07 06:15:00,53.2,46.9,30.11,ESE,112,0.0,0.0,79,0.00,,,0.00,VWS V14.01,2013-05-07 11:15:00,
2013-05-07 06:16:00,53.2,46.9,30.11,ESE,112,0.0,0.0,79,0.00,,,0.00,VWS V14.01,2013-05-07 11:16:00,
2013-05-07 06:17:00,53.4,47.1,30.11,ESE,112,0.0,0.0,79,0.00,,,0.00,VWS V14.01,2013-05-07 11:17:00,
2013-05-07 06:18:00,53.4,47.1,30.11,ESE,112,0.0,0.0,79,0.00,,,0.00,VWS V14.01,2013-05-07 11:18:00,
2013-05-07 06:19:00,53.2,46.9,30.11,ESE,112,0.0,0.0,79,0.00,,,0.00,VWS V14.01,2013-05-07 11:19:00,
2013-05-07 06:20:00,53.2,46.9,30.11,ESE,112,0.0,0.0,79,0.00,,,0.00,VWS V14.01,2013-05-07 11:20:00,
2013-05-07 06:21:00,53.2,46.9,30.11,ESE,112,0.0,0.0,79,0.00,,,0.00,VWS V14.01,2013-05-07 11:21:00,
2013-05-07 06:22:00,53.4,47.1,30.11,ESE,112,0.0,0.0,79,0.00,,,0.00,VWS V14.01,2013-05-07 11:22:00,
2013-05-07 06:23:00,53.4,47.1,30.12,ESE,112,0.0,0.0,79,0.00,,,0.00,VWS V14.01,2013-05-07 11:23:00,
2013-05-07 06:24:00,53.4,47.1,30.12,ESE,112,0.0,0.0,79,0.00,,,0.00,VWS V14.01,2013-05-07 11:24:00,
2013-05-07 06:25:00,53.4,47.1,30.11,ESE,112,0.0,0.0,79,0.00,,,0.00,VWS V14.01,2013-05-07 11:25:00,
2013-05-07 06:26:00,53.4,47.1,30.11,ESE,112,0.0,0.0,79,0.00,,,0.00,VWS V14.01,2013-05-07 11:26:00,
2013-05-07 06:27:00,53.4,47.1,30.11,ESE,112,0.0,0.0,79,0.00,,,0.00,VWS V14.01,2013-05-07 11:27:00,
2013-05-07 06:28:00,53.7,47.3,30.11,ESE,112,0.0,0.0,79,0.00,,,0.00,VWS V14.01,2013-05-07 11:28:00,
2013-05-07 06:29:00,53.7,47.3,30.11,ESE,112,0.0,0.0,79,0.00,,,0.00,VWS V14.01,2013-05-07 11:29:00,
2013-05-07 06:30:00,53.7,47.3,30.11,ESE,112,0.0,0.0,79,0.00,,,0.00,VWS V14.01,2013-05-07 11:30:00,
2013-05-07 06:31:00,53.7,47.3,30.11,ESE,112,0.0,0.0,79,0.00,,,0.00,VWS V14.01,2013-05-07 11:31:00,
2013-05-07 06:32:00,53.9,47.5,30.11,ESE,112,0.0,0.0,79,0.00,,,0.00,VWS V14.01,2013-05-07 11:32:00,
2013-05-07 06:33:00,53.9,47.5,30.11,ESE,112,0.0,0.0,79,0.00,,,0.00,VWS V14.01,2013-05-07 11:33:00,
2013-05-07 06:34:00,53.9,47.5,30.11,ESE,112,0.0,0.0,79,0.00,,,0.00,VWS V14.01,2013-05-07 11:34:00,
2013-05-07 06:35:00,53.9,47.5,30.12,ESE,112,0.0,0.0,79,0.00,,,0.00,VWS V14.01,2013-05-07 11:35:00,
2013-05-07 06:36:00,53.9,47.5,30.12,ESE,112,0.0,0.0,79,0.00,,,0.00,VWS V14.01,2013-05-07 11:36:00,
2013-05-07 06:37:00,53.9,47.5,30.12,ESE,112,0.0,0.0,79,0.00,,,0.00,VWS V14.01,2013-05-07 11:37:00,
2013-05-07 06:38:00,54.1,47.7,30.12,ESE,112,0.0,0.0,79,0.00,,,0.00,VWS V14.01,2013-05-07 11:38:00,
2013-05-07 06:39:00,54.1,47.7,30.12,ESE,112,0.0,0.0,79,0.00,,,0.00,VWS V14.01,2013-05-07 11:39:00,
2013-05-07 06:40:00,54.3,47.9,30.12,ESE,112,0.0,0.0,79,0.00,,,0.00,VWS V14.01,2013-05-07 11:40:00,
2013-05-07 06:41:00,54.3,47.9,30.12,ESE,112,0.0,0.0,79,0.00,,,0.00,VWS V14.01,2013-05-07 11:41:00,
2013-05-07 06:42:00,54.3,47.9,30.12,ESE,112,0.0,0.0,79,0.00,,,0.00,VWS V14.01,2013-05-07 11:42:00,
2013-05-07 06:43:00,54.3,47.9,30.12,ESE,112,0.0,0.0,79,0.00,,,0.00,VWS V14.01,2013-05-07 11:43:00,
2013-05-07 06:44:00,54.3,47.9,30.12,ESE,112,0.0,0.0,79,0.00,,,0.00,VWS V14.01,2013-05-07 11:44:00,
2013-05-07 06:45:00,54.6,47.9,30.12,ESE,112,0.0,0.0,78,0.00,,,0.00,VWS V14.01,2013-05-07 11:45:00,
2013-05-07 06:46:00,54.6,47.9,30.12,ESE,112,0.0,0.0,78,0.00,,,0.00,VWS V14.01,2013-05-07 11:46:00,
2013-05-07 06:47:00,54.8,48.1,30.12,ESE,112,0.0,0.0,78,0.00,,,0.00,VWS V14.01,2013-05-07 11:47:00,
2013-05-07 06:48:00,54.8,48.1,30.12,ESE,112,0.0,0.0,78,0.00,,,0.00,VWS V14.01,2013-05-07 11:48:00,
2013-05-07 06:49:00,55.0,48.3,30.12,ESE,112,0.0,0.0,78,0.00,,,0.00,VWS V14.01,2013-05-07 11:49:00,
2013-05-07 06:50:00,55.0,48.3,30.12,ESE,112,0.0,0.0,78,0.00,,,0.00,VWS V14.01,2013-05-07 11:50:00,
2013-05-07 06:51:00,55.0,48.3,30.12,ESE,112,0.0,0.0,78,0.00,,,0.00,VWS V14.01,2013-05-07 11:51:00,
2013-05-07 06:52:00,55.0,47.9,30.12,ESE,112,0.0,0.0,77,0.00,,,0.00,VWS V14.01,2013-05-07 11:52:00,
2013-05-07 06:53:00,55.2,48.1,30.12,ESE,112,0.0,0.0,77,0.00,,,0.00,VWS V14.01,2013-05-07 11:53:00,
2013-05-07 06:54:00,55.2,48.1,30.12,ESE,112,0.0,0.0,77,0.00,,,0.00,VWS V14.01,2013-05-07 11:54:00,
2013-05-07 06:55:00,55.2,48.1,30.12,ESE,112,0.0,0.0,77,0.00,,,0.00,VWS V14.01,2013-05-07 11:55:00,
2013-05-07 06:56:00,55.2,48.1,30.12,ESE,112,0.0,0.0,77,0.00,,,0.00,VWS V14.01,2013-05-07 11:56:00,
2013-05-07 06:57:00,55.2,48.1,30.12,ESE,112,0.0,0.0,77,0.00,,,0.00,VWS V14.01,2013-05-07 11:57:00,
2013-05-07 06:58:00,55.2,48.1,30.12,ESE,112,0.0,0.0,77,0.00,,,0.00,VWS V14.01,2013-05-07 11:58:00,
2013-05-07 06:59:00,55.2,48.1,30.12,ESE,112,0.0,0.0,77,0.00,,,0.00,VWS V14.01,2013-05-07 11:59:00,
2013-05-07 07:00:00,55.2,48.1,30.12,ESE,112,0.0,0.0,77,0.00,,,0.00,VWS V14.01,2013-05-07 12:00:00,
2013-05-07 07:01:00,55.2,48.1,30.12,ESE,112,0.0,0.0,77,0.00,,,0.00,VWS V14.01,2013-05-07 12:01:00,
2013-05-07 07:02:00,55.5,48.1,30.12,ESE,112,0.0,0.0,76,0.00,,,0.00,VWS V14.01,2013-05-07 12:02:00,
2013-05-07 07:03:00,55.5,48.1,30.12,ESE,112,0.0,0.0,76,0.00,,,0.00,VWS V14.01,2013-05-07 12:03:00,
2013-05-07 07:04:00,55.9,48.5,30.13,ESE,112,0.0,0.0,76,0.00,,,0.00,VWS V14.01,2013-05-07 12:04:00,
2013-05-07 07:05:00,55.9,48.5,30.12,ESE,112,0.0,0.0,76,0.00,,,0.00,VWS V14.01,2013-05-07 12:05:00,
2013-05-07 07:06:00,55.9,48.5,30.12,ESE,112,0.0,0.0,76,0.00,,,0.00,VWS V14.01,2013-05-07 12:06:00,
2013-05-07 07:07:00,55.7,48.3,30.13,ESE,112,0.0,0.0,76,0.00,,,0.00,VWS V14.01,2013-05-07 12:07:00,
2013-05-07 07:08:00,55.9,48.5,30.13,ESE,112,0.0,0.0,76,0.00,,,0.00,VWS V14.01,2013-05-07 12:08:00,
2013-05-07 07:09:00,55.9,48.5,30.13,ESE,112,0.0,0.0,76,0.00,,,0.00,VWS V14.01,2013-05-07 12:09:00,
2013-05-07 07:10:00,56.1,48.7,30.13,ESE,112,0.0,0.0,76,0.00,,,0.00,VWS V14.01,2013-05-07 12:10:00,
2013-05-07 07:11:00,56.1,48.7,30.13,ESE,112,0.0,0.0,76,0.00,,,0.00,VWS V14.01,2013-05-07 12:11:00,
2013-05-07 07:12:00,56.8,49.3,30.13,West,270,0.0,0.0,76,0.00,,,0.00,VWS V14.01,2013-05-07 12:12:00,
2013-05-07 07:13:00,56.8,49.3,30.12,West,270,0.0,0.0,76,0.00,,,0.00,VWS V14.01,2013-05-07 12:13:00,
2013-05-07 07:14:00,56.8,49.3,30.13,West,270,0.0,0.0,76,0.00,,,0.00,VWS V14.01,2013-05-07 12:14:00,
2013-05-07 07:15:00,57.7,49.8,30.13,West,270,0.0,0.0,75,0.00,,,0.00,VWS V14.01,2013-05-07 12:15:00,
2013-05-07 07:16:00,57.7,49.8,30.13,West,270,0.0,0.0,75,0.00,,,0.00,VWS V14.01,2013-05-07 12:16:00,
2013-05-07 07:17:00,58.8,50.9,30.12,West,270,0.0,0.0,75,0.00,,,0.00,VWS V14.01,2013-05-07 12:17:00,
2013-05-07 07:18:00,58.8,50.9,30.13,West,270,0.0,0.0,75,0.00,,,0.00,VWS V14.01,2013-05-07 12:18:00,
2013-05-07 07:19:00,59.5,51.2,30.13,West,270,0.0,0.0,74,0.00,,,0.00,VWS V14.01,2013-05-07 12:19:00,
2013-05-07 07:20:00,59.5,51.2,30.12,West,270,0.0,0.0,74,0.00,,,0.00,VWS V14.01,2013-05-07 12:20:00,
2013-05-07 07:21:00,59.5,51.2,30.12,West,270,0.0,0.0,74,0.00,,,0.00,VWS V14.01,2013-05-07 12:21:00,
2013-05-07 07:22:00,60.4,52.1,30.13,West,270,0.0,0.0,74,0.00,,,0.00,VWS V14.01,2013-05-07 12:22:00,
2013-05-07 07:23:00,61.1,52.4,30.13,West,270,0.0,0.0,73,0.00,,,0.00,VWS V14.01,2013-05-07 12:23:00,
2013-05-07 07:24:00,61.1,52.4,30.13,West,270,0.0,0.0,73,0.00,,,0.00,VWS V14.01,2013-05-07 12:24:00,
2013-05-07 07:25:00,61.8,52.7,30.13,West,270,0.0,0.0,72,0.00,,,0.00,VWS V14.01,2013-05-07 12:25:00,
2013-05-07 07:26:00,61.8,52.7,30.13,West,270,0.0,0.0,72,0.00,,,0.00,VWS V14.01,2013-05-07 12:26:00,
2013-05-07 07:27:00,61.8,52.7,30.13,West,270,0.0,0.0,72,0.00,,,0.00,VWS V14.01,2013-05-07 12:27:00,
2013-05-07 07:28:00,62.4,53.3,30.13,West,270,0.0,0.0,72,0.00,,,0.00,VWS V14.01,2013-05-07 12:28:00,
2013-05-07 07:29:00,62.4,53.3,30.13,WSW,248,0.0,0.0,72,0.00,,,0.00,VWS V14.01,2013-05-07 12:29:00,
2013-05-07 07:30:00,62.6,52.7,30.13,WSW,248,0.0,0.0,70,0.00,,,0.00,VWS V14.01,2013-05-07 12:30:00,
2013-05-07 07:31:00,62.6,52.7,30.13,WSW,248,0.0,0.0,70,0.00,,,0.00,VWS V14.01,2013-05-07 12:31:00,
2013-05-07 07:32:00,62.4,51.7,30.13,SE,135,1.7,1.7,68,0.00,,,0.00,VWS V14.01,2013-05-07 12:32:00,
2013-05-07 07:33:00,62.4,51.7,30.13,SE,135,1.7,1.7,68,0.00,,,0.00,VWS V14.01,2013-05-07 12:33:00,
2013-05-07 07:34:00,62.6,51.1,30.13,SE,135,2.4,2.4,66,0.00,,,0.00,VWS V14.01,2013-05-07 12:34:00,
2013-05-07 07:35:00,62.6,51.1,30.13,SE,135,2.4,2.4,66,0.00,,,0.00,VWS V14.01,2013-05-07 12:35:00,
2013-05-07 07:36:00,62.7,50.4,30.13,SE,135,0.0,2.4,64,0.00,,,0.00,VWS V14.01,2013-05-07 12:36:00,
2013-05-07 07:37:00,62.7,50.4,30.13,SE,135,0.0,0.0,64,0.00,,,0.00,VWS V14.01,2013-05-07 12:37:00,
2013-05-07 07:38:00,63.1,50.3,30.13,SE,135,0.0,0.0,63,0.00,,,0.00,VWS V14.01,2013-05-07 12:38:00,
2013-05-07 07:39:00,63.1,50.3,30.13,SE,135,0.0,0.0,63,0.00,,,0.00,VWS V14.01,2013-05-07 12:39:00,
2013-05-07 07:40:00,63.3,49.6,30.13,SE,135,1.1,1.1,61,0.00,,,0.00,VWS V14.01,2013-05-07 12:40:00,
2013-05-07 07:41:00,63.3,49.6,30.13,SE,135,1.1,1.1,61,0.00,,,0.00,VWS V14.01,2013-05-07 12:41:00,
2013-05-07 07:42:00,63.3,49.2,30.13,SE,135,0.0,1.1,60,0.00,,,0.00,VWS V14.01,2013-05-07 12:42:00,
2013-05-07 07:43:00,64.0,49.8,30.13,SE,135,0.0,0.0,60,0.00,,,0.00,VWS V14.01,2013-05-07 12:43:00,
2013-05-07 07:44:00,64.0,49.8,30.13,SE,135,0.0,0.0,60,0.00,,,0.00,VWS V14.01,2013-05-07 12:44:00,
2013-05-07 07:45:00,64.9,50.7,30.13,SE,135,0.0,0.0,60,0.00,,,0.00,VWS V14.01,2013-05-07 12:45:00,
2013-05-07 07:46:00,64.9,50.7,30.13,SE,135,0.0,0.0,60,0.00,,,0.00,VWS V14.01,2013-05-07 12:46:00,
2013-05-07 07:47:00,65.8,50.6,30.13,SE,135,0.8,0.8,58,0.00,,,0.00,VWS V14.01,2013-05-07 12:47:00,
2013-05-07 07:48:00,65.8,50.6,30.13,SE,135,0.8,0.8,58,0.00,,,0.00,VWS V14.01,2013-05-07 12:48:00,
2013-05-07 07:49:00,65.4,49.8,30.13,SE,135,0.4,0.8,57,0.00,,,0.00,VWS V14.01,2013-05-07 12:49:00,
2013-05-07 07:50:00,65.4,49.8,30.13,SE,135,0.4,0.4,57,0.00,,,0.00,VWS V14.01,2013-05-07 12:50:00,
2013-05-07 07:51:00,65.4,49.8,30.13,SE,135,0.4,0.4,57,0.00,,,0.00,VWS V14.01,2013-05-07 12:51:00,
2013-05-07 07:52:00,64.9,48.8,30.13,SE,135,0.0,0.0,56,0.00,,,0.00,VWS V14.01,2013-05-07 12:52:00,
2013-05-07 07:53:00,65.1,49.0,30.13,SE,135,0.0,0.0,56,0.00,,,0.00,VWS V14.01,2013-05-07 12:53:00,
2013-05-07 07:54:00,65.1,49.0,30.13,SE,135,0.0,0.0,56,0.00,,,0.00,VWS V14.01,2013-05-07 12:54:00,
2013-05-07 07:55:00,64.9,49.3,30.13,SE,135,0.4,0.4,57,0.00,,,0.00,VWS V14.01,2013-05-07 12:55:00,
2013-05-07 07:56:00,64.9,49.3,30.13,SE,135,0.4,0.4,57,0.00,,,0.00,VWS V14.01,2013-05-07 12:56:00,
2013-05-07 07:57:00,64.7,48.7,30.13,SE,135,0.6,0.6,56,0.00,,,0.00,VWS V14.01,2013-05-07 12:57:00,
2013-05-07 07:58:00,64.7,48.7,30.13,SE,135,0.6,0.6,56,0.00,,,0.00,VWS V14.01,2013-05-07 12:58:00,
2013-05-07 07:59:00,64.7,48.7,30.13,SE,135,0.6,0.6,56,0.00,,,0.00,VWS V14.01,2013-05-07 12:59:00,
2013-05-07 08:00:00,64.5,48.5,30.13,SE,135,1.1,1.1,56,0.00,,,0.00,VWS V14.01,2013-05-07 13:00:00,
2013-05-07 08:01:00,64.5,48.5,30.13,SE,135,1.1,1.1,56,0.00,,,0.00,VWS V14.01,2013-05-07 13:01:00,
2013-05-07 08:02:00,64.5,49.0,30.13,SE,135,2.2,2.2,57,0.00,,,0.00,VWS V14.01,2013-05-07 13:02:00,
2013-05-07 08:03:00,64.5,49.0,30.13,SE,135,2.2,2.2,57,0.00,,,0.00,VWS V14.01,2013-05-07 13:03:00,
2013-05-07 08:04:00,64.7,49.1,30.13,SE,135,2.2,2.2,57,0.00,,,0.00,VWS V14.01,2013-05-07 13:04:00,
2013-05-07 08:05:00,64.7,49.1,30.13,SE,135,2.2,2.2,57,0.00,,,0.00,VWS V14.01,2013-05-07 13:05:00,
2013-05-07 08:06:00,64.2,48.2,30.13,SE,135,0.8,2.2,56,0.00,,,0.00,VWS V14.01,2013-05-07 13:06:00,
2013-05-07 08:07:00,64.2,48.2,30.13,SE,135,0.8,0.8,56,0.00,,,0.00,VWS V14.01,2013-05-07 13:07:00,
2013-05-07 08:08:00,64.5,49.0,30.13,SE,135,2.6,2.6,57,0.00,,,0.00,VWS V14.01,2013-05-07 13:08:00,
2013-05-07 08:09:00,64.5,49.0,30.13,SE,135,2.6,2.6,57,0.00,,,0.00,VWS V14.01,2013-05-07 13:09:00,
2013-05-07 08:10:00,64.5,49.0,30.13,SE,135,1.1,2.6,57,0.00,,,0.00,VWS V14.01,2013-05-07 13:10:00,
2013-05-07 08:11:00,64.5,49.0,30.13,SE,135,1.1,1.1,57,0.00,,,0.00,VWS V14.01,2013-05-07 13:11:00,
2013-05-07 08:12:00,64.2,48.7,30.13,SE,135,1.7,1.7,57,0.00,,,0.00,VWS V14.01,2013-05-07 13:12:00,
2013-05-07 08:13:00,64.2,48.7,30.13,SE,135,1.7,1.7,57,0.00,,,0.00,VWS V14.01,2013-05-07 13:13:00,
2013-05-07 08:14:00,64.2,48.7,30.13,North,0,0.0,1.7,57,0.00,,,0.00,VWS V14.01,2013-05-07 13:14:00,
2013-05-07 08:15:00,64.5,48.5,30.13,SE,135,0.4,0.4,56,0.00,,,0.00,VWS V14.01,2013-05-07 13:15:00,
2013-05-07 08:16:00,64.5,48.5,30.13,SE,135,0.4,0.4,56,0.00,,,0.00,VWS V14.01,2013-05-07 13:16:00,
2013-05-07 08:17:00,64.4,48.4,30.13,SE,135,0.8,0.8,56,0.00,,,0.00,VWS V14.01,2013-05-07 13:17:00,
2013-05-07 08:18:00,64.4,48.4,30.13,SE,135,0.8,0.8,56,0.00,,,0.00,VWS V14.01,2013-05-07 13:18:00,
2013-05-07 08:19:00,64.4,48.4,30.13,SE,135,1.7,1.7,56,0.00,,,0.00,VWS V14.01,2013-05-07 13:19:00,
2013-05-07 08:20:00,64.4,48.4,30.13,SE,135,1.7,1.7,56,0.00,,,0.00,VWS V14.01,2013-05-07 13:20:00,
2013-05-07 08:21:00,64.4,48.8,30.13,SE,135,1.3,1.7,57,0.00,,,0.00,VWS V14.01,2013-05-07 13:21:00,
2013-05-07 08:22:00,64.4,48.8,30.13,SE,135,1.3,1.3,57,0.00,,,0.00,VWS V14.01,2013-05-07 13:22:00,
2013-05-07 08:23:00,64.5,49.0,30.13,SE,135,0.4,1.3,57,0.00,,,0.00,VWS V14.01,2013-05-07 13:23:00,
2013-05-07 08:24:00,64.5,49.0,30.13,SE,135,0.4,0.4,57,0.00,,,0.00,VWS V14.01,2013-05-07 13:24:00,
2013-05-07 08:25:00,64.9,49.8,30.13,SE,135,1.3,1.3,58,0.00,,,0.00,VWS V14.01,2013-05-07 13:25:00,
2013-05-07 08:26:00,64.9,49.8,30.13,SE,135,1.3,1.3,58,0.00,,,0.00,VWS V14.01,2013-05-07 13:26:00,
2013-05-07 08:27:00,65.1,49.5,30.13,SE,135,0.0,1.3,57,0.00,,,0.00,VWS V14.01,2013-05-07 13:27:00,
2013-05-07 08:28:00,65.1,49.5,30.13,SE,135,0.0,0.0,57,0.00,,,0.00,VWS V14.01,2013-05-07 13:28:00,
2013-05-07 08:29:00,65.1,49.5,30.13,SE,135,0.6,0.6,57,0.00,,,0.00,VWS V14.01,2013-05-07 13:29:00,
2013-05-07 08:30:00,65.8,50.2,30.13,SE,135,0.6,0.6,57,0.00,,,0.00,VWS V14.01,2013-05-07 13:30:00,
2013-05-07 08:31:00,65.8,50.2,30.13,SE,135,0.6,0.6,57,0.00,,,0.00,VWS V14.01,2013-05-07 13:31:00,
2013-05-07 08:32:00,66.3,50.2,30.13,SE,135,0.0,0.6,56,0.00,,,0.00,VWS V14.01,2013-05-07 13:32:00,
2013-05-07 08:33:00,66.3,50.2,30.14,SE,135,0.0,0.0,56,0.00,,,0.00,VWS V14.01,2013-05-07 13:33:00,
2013-05-07 08:34:00,67.6,50.9,30.13,SE,135,0.0,0.0,55,0.00,,,0.00,VWS V14.01,2013-05-07 13:34:00,
2013-05-07 08:35:00,67.6,50.9,30.13,SE,135,0.0,0.0,55,0.00,,,0.00,VWS V14.01,2013-05-07 13:35:00,
2013-05-07 08:36:00,67.8,50.1,30.13,SE,135,0.0,0.0,53,0.00,,,0.00,VWS V14.01,2013-05-07 13:36:00,
2013-05-07 08:37:00,67.8,50.1,30.13,SE,135,0.0,0.0,53,0.00,,,0.00,VWS V14.01,2013-05-07 13:37:00,
2013-05-07 08:38:00,68.3,51.0,30.14,SE,135,0.0,0.0,54,0.00,,,0.00,VWS V14.01,2013-05-07 13:38:00,
2013-05-07 08:39:00,68.3,51.0,30.13,SE,135,0.0,0.0,54,0.00,,,0.00,VWS V14.01,2013-05-07 13:39:00,
2013-05-07 08:40:00,69.4,51.5,30.13,SE,135,0.0,0.0,53,0.00,,,0.00,VWS V14.01,2013-05-07 13:40:00,
2013-05-07 08:41:00,69.4,51.5,30.13,SE,135,0.0,0.0,53,0.00,,,0.00,VWS V14.01,2013-05-07 13:41:00,
2013-05-07 08:42:00,69.9,52.0,30.13,NNE,22,0.0,0.0,53,0.00,,,0.00,VWS V14.01,2013-05-07 13:42:00,
2013-05-07 08:43:00,69.9,52.0,30.13,NNE,22,0.0,0.0,53,0.00,,,0.00,VWS V14.01,2013-05-07 13:43:00,
2013-05-07 08:44:00,69.9,52.0,30.14,NNE,22,0.0,0.0,53,0.00,,,0.00,VWS V14.01,2013-05-07 13:44:00,
2013-05-07 08:45:00,69.9,52.0,30.14,NNE,22,0.0,0.0,53,0.00,,,0.00,VWS V14.01,2013-05-07 13:45:00,
2013-05-07 08:46:00,69.9,52.0,30.14,NNE,22,0.0,0.0,53,0.00,,,0.00,VWS V14.01,2013-05-07 13:46:00,
2013-05-07 08:47:00,70.8,52.3,30.14,NNE,22,0.0,0.0,52,0.00,,,0.00,VWS V14.01,2013-05-07 13:47:00,
2013-05-07 08:48:00,70.8,52.3,30.13,NNE,22,0.0,0.0,52,0.00,,,0.00,VWS V14.01,2013-05-07 13:48:00,
2013-05-07 08:49:00,72.1,51.9,30.14,NNE,22,0.0,0.0,49,0.00,,,0.00,VWS V14.01,2013-05-07 13:49:00,
2013-05-07 08:50:00,72.1,51.9,30.14,NNE,22,0.0,0.0,49,0.00,,,0.00,VWS V14.01,2013-05-07 13:50:00,
2013-05-07 08:51:00,71.6,51.5,30.14,East,90,0.0,0.0,49,0.00,,,0.00,VWS V14.01,2013-05-07 13:51:00,
2013-05-07 08:52:00,71.6,51.5,30.14,East,90,0.0,0.0,49,0.00,,,0.00,VWS V14.01,2013-05-07 13:52:00,
2013-05-07 08:53:00,70.8,50.7,30.14,SSE,158,0.0,0.0,49,0.00,,,0.00,VWS V14.01,2013-05-07 13:53:00,
2013-05-07 08:54:00,70.8,50.7,30.14,SSE,158,0.0,0.0,49,0.00,,,0.00,VWS V14.01,2013-05-07 13:54:00,
2013-05-07 08:55:00,70.8,50.7,30.14,SSE,158,0.0,0.0,49,0.00,,,0.00,VWS V14.01,2013-05-07 13:55:00,
2013-05-07 08:56:00,71.7,51.5,30.14,SSE,158,0.0,0.0,49,0.00,,,0.00,VWS V14.01,2013-05-07 13:56:00,
2013-05-07 08:57:00,70.8,50.7,30.14,SE,135,0.0,0.0,49,0.00,,,0.00,VWS V14.01,2013-05-07 13:57:00,
2013-05-07 08:58:00,70.8,50.7,30.14,SE,135,0.0,0.0,49,0.00,,,0.00,VWS V14.01,2013-05-07 13:58:00,
2013-05-07 08:59:00,70.8,50.7,30.14,SE,135,0.0,0.0,49,0.00,,,0.00,VWS V14.01,2013-05-07 13:59:00,
2013-05-07 09:00:00,70.8,50.7,30.14,SE,135,0.0,0.0,49,0.00,,,0.00,VWS V14.01,2013-05-07 14:00:00,
2013-05-07 09:01:00,70.7,50.6,30.14,SE,135,0.0,0.0,49,0.00,,,0.00,VWS V14.01,2013-05-07 14:01:00,
2013-05-07 09:02:00,70.1,50.1,30.14,SE,135,0.0,0.0,49,0.00,,,0.00,VWS V14.01,2013-05-07 14:02:00,
2013-05-07 09:03:00,70.1,50.1,30.14,SE,135,0.0,0.0,49,0.00,,,0.00,VWS V14.01,2013-05-07 14:03:00,
2013-05-07 09:04:00,69.4,49.4,30.14,SE,135,0.0,0.0,49,0.00,,,0.00,VWS V14.01,2013-05-07 14:04:00,
2013-05-07 09:05:00,69.4,49.4,30.14,SE,135,0.0,0.0,49,0.00,,,0.00,VWS V14.01,2013-05-07 14:05:00,
2013-05-07 09:06:00,69.0,49.6,30.14,SE,135,0.0,0.0,50,0.00,,,0.00,VWS V14.01,2013-05-07 14:06:00,
2013-05-07 09:07:00,69.0,49.6,30.14,SE,135,0.0,0.0,50,0.00,,,0.00,VWS V14.01,2013-05-07 14:07:00,
2013-05-07 09:08:00,69.9,49.3,30.14,SSE,158,0.0,0.0,48,0.00,,,0.00,VWS V14.01,2013-05-07 14:08:00,
2013-05-07 09:09:00,69.9,49.3,30.14,SSE,158,0.0,0.0,48,0.00,,,0.00,VWS V14.01,2013-05-07 14:09:00,
2013-05-07 09:10:00,69.9,49.3,30.14,SSE,158,0.0,0.0,48,0.00,,,0.00,VWS V14.01,2013-05-07 14:10:00,
2013-05-07 09:11:00,70.5,49.9,30.14,SSE,158,0.4,0.4,48,0.00,,,0.00,VWS V14.01,2013-05-07 14:11:00,
2013-05-07 09:12:00,70.1,49.0,30.14,SSE,158,0.0,0.4,47,0.00,,,0.00,VWS V14.01,2013-05-07 14:12:00,
2013-05-07 09:13:00,70.1,49.0,30.14,SSE,158,0.0,0.0,47,0.00,,,0.00,VWS V14.01,2013-05-07 14:13:00,
2013-05-07 09:14:00,70.3,50.3,30.14,SSE,158,0.0,0.0,49,0.00,,,0.00,VWS V14.01,2013-05-07 14:14:00,
2013-05-07 09:15:00,70.3,50.3,30.14,SSE,158,0.0,0.0,49,0.00,,,0.00,VWS V14.01,2013-05-07 14:15:00,
2013-05-07 09:16:00,70.3,50.3,30.14,SSE,158,0.0,0.0,49,0.00,,,0.00,VWS V14.01,2013-05-07 14:16:00,
2013-05-07 09:17:00,70.8,50.2,30.14,SSE,158,0.0,0.0,48,0.00,,,0.00,VWS V14.01,2013-05-07 14:17:00,
2013-05-07 09:18:00,70.8,50.2,30.14,SSE,158,0.0,0.0,48,0.00,,,0.00,VWS V14.01,2013-05-07 14:18:00,
2013-05-07 09:19:00,71.7,51.0,30.14,SSE,158,0.0,0.0,48,0.00,,,0.00,VWS V14.01,2013-05-07 14:19:00,
2013-05-07 09:20:00,71.7,51.0,30.14,SSE,158,0.0,0.0,48,0.00,,,0.00,VWS V14.01,2013-05-07 14:20:00,
2013-05-07 09:21:00,71.0,50.3,30.14,SE,135,0.0,0.0,48,0.00,,,0.00,VWS V14.01,2013-05-07 14:21:00,
2013-05-07 09:22:00,71.0,50.3,30.14,SE,135,0.0,0.0,48,0.00,,,0.00,VWS V14.01,2013-05-07 14:22:00,
2013-05-07 09:23:00,70.8,50.2,30.14,SE,135,0.0,0.0,48,0.00,,,0.00,VWS V14.01,2013-05-07 14:23:00,
2013-05-07 09:24:00,70.8,50.2,30.14,SE,135,0.0,0.0,48,0.00,,,0.00,VWS V14.01,2013-05-07 14:24:00,
2013-05-07 09:25:00,70.8,50.2,30.14,SE,135,0.0,0.0,48,0.00,,,0.00,VWS V14.01,2013-05-07 14:25:00,
2013-05-07 09:26:00,71.0,49.8,30.14,ESE,112,0.8,0.8,47,0.00,,,0.00,VWS V14.01,2013-05-07 14:26:00,
2013-05-07 09:27:00,71.0,49.8,30.14,SE,135,3.1,3.1,47,0.00,,,0.00,VWS V14.01,2013-05-07 14:27:00,
2013-05-07 09:28:00,69.9,48.8,30.14,SE,135,3.1,3.1,47,0.00,,,0.00,VWS V14.01,2013-05-07 14:28:00,
2013-05-07 09:29:00,69.9,48.8,30.14,SE,135,0.0,3.1,47,0.00,,,0.00,VWS V14.01,2013-05-07 14:29:00,
2013-05-07 09:30:00,69.9,48.8,30.14,SE,135,0.0,0.0,47,0.00,,,0.00,VWS V14.01,2013-05-07 14:30:00,
2013-05-07 09:31:00,69.4,48.9,30.14,SE,135,0.0,0.0,48,0.00,,,0.00,VWS V14.01,2013-05-07 14:31:00,
2013-05-07 09:32:00,69.4,48.9,30.14,SE,135,1.1,1.1,48,0.00,,,0.00,VWS V14.01,2013-05-07 14:32:00,
2013-05-07 09:33:00,69.4,48.9,30.14,SE,135,1.1,1.1,48,0.00,,,0.00,VWS V14.01,2013-05-07 14:33:00,
2013-05-07 09:34:00,69.4,48.9,30.14,SE,135,1.5,1.5,48,0.00,,,0.00,VWS V14.01,2013-05-07 14:34:00,
2013-05-07 09:35:00,69.4,48.9,30.14,SE,135,1.5,1.5,48,0.00,,,0.00,VWS V14.01,2013-05-07 14:35:00,
2013-05-07 09:36:00,69.0,48.5,30.14,SE,135,0.0,1.5,48,0.00,,,0.00,VWS V14.01,2013-05-07 14:36:00,
2013-05-07 09:37:00,69.0,48.5,30.14,SE,135,0.0,0.0,48,0.00,,,0.00,VWS V14.01,2013-05-07 14:37:00,
2013-05-07 09:38:00,69.4,49.4,30.14,SE,135,0.2,0.2,49,0.00,,,0.00,VWS V14.01,2013-05-07 14:38:00,
2013-05-07 09:39:00,69.4,49.4,30.14,SE,135,0.2,0.2,49,0.00,,,0.00,VWS V14.01,2013-05-07 14:39:00,
2013-05-07 09:40:00,69.4,49.4,30.14,SE,135,0.2,0.2,49,0.00,,,0.00,VWS V14.01,2013-05-07 14:40:00,
2013-05-07 09:41:00,69.6,48.5,30.14,ESE,112,0.0,0.0,47,0.00,,,0.00,VWS V14.01,2013-05-07 14:41:00,
2013-05-07 09:42:00,69.8,49.2,30.14,ESE,112,0.4,0.4,48,0.00,,,0.00,VWS V14.01,2013-05-07 14:42:00,
2013-05-07 09:43:00,69.8,49.2,30.14,ESE,112,0.4,0.4,48,0.00,,,0.00,VWS V14.01,2013-05-07 14:43:00,
2013-05-07 09:44:00,69.8,49.2,30.14,ESE,112,0.0,0.4,48,0.00,,,0.00,VWS V14.01,2013-05-07 14:44:00,
2013-05-07 09:45:00,69.8,49.2,30.14,ESE,112,0.0,0.0,48,0.00,,,0.00,VWS V14.01,2013-05-07 14:45:00,
2013-05-07 09:46:00,70.5,50.4,30.14,ESE,112,0.0,0.0,49,0.00,,,0.00,VWS V14.01,2013-05-07 14:46:00,
2013-05-07 09:47:00,71.4,51.3,30.14,ESE,112,0.0,0.0,49,0.00,,,0.00,VWS V14.01,2013-05-07 14:47:00,
2013-05-07 09:48:00,71.4,51.3,30.14,ESE,112,0.0,0.0,49,0.00,,,0.00,VWS V14.01,2013-05-07 14:48:00,
2013-05-07 09:49:00,72.3,51.5,30.14,East,90,0.0,0.0,48,0.00,,,0.00,VWS V14.01,2013-05-07 14:49:00,
2013-05-07 09:50:00,72.3,51.5,30.14,East,90,0.0,0.0,48,0.00,,,0.00,VWS V14.01,2013-05-07 14:50:00,
2013-05-07 09:51:00,72.5,50.0,30.14,East,90,0.0,0.0,45,0.00,,,0.00,VWS V14.01,2013-05-07 14:51:00,
2013-05-07 09:52:00,72.5,50.0,30.14,East,90,0.0,0.0,45,0.00,,,0.00,VWS V14.01,2013-05-07 14:52:00,
2013-05-07 09:53:00,72.6,50.1,30.14,East,90,0.0,0.0,45,0.00,,,0.00,VWS V14.01,2013-05-07 14:53:00,
2013-05-07 09:54:00,72.6,50.1,30.14,East,90,0.0,0.0,45,0.00,,,0.00,VWS V14.01,2013-05-07 14:54:00,
2013-05-07 09:55:00,72.6,50.1,30.14,East,90,0.0,0.0,45,0.00,,,0.00,VWS V14.01,2013-05-07 14:55:00,
2013-05-07 09:56:00,71.9,48.2,30.14,ESE,112,2.0,2.0,43,0.00,,,0.00,VWS V14.01,2013-05-07 14:56:00,
2013-05-07 09:57:00,71.4,48.4,30.14,SE,135,0.0,2.0,44,0.00,,,0.00,VWS V14.01,2013-05-07 14:57:00,
2013-05-07 09:58:00,71.4,48.4,30.14,SE,135,0.0,0.0,44,0.00,,,0.00,VWS V14.01,2013-05-07 14:58:00,
2013-05-07 09:59:00,72.3,49.2,30.13,ESE,112,1.7,1.7,44,0.00,,,0.00,VWS V14.01,2013-05-07 14:59:00,
2013-05-07 10:00:00,72.3,49.2,30.13,ESE,112,1.7,1.7,44,0.00,,,0.00,VWS V14.01,2013-05-07 15:00:00,
2013-05-07 10:01:00,72.1,49.6,30.13,ESE,112,1.7,1.7,45,0.00,,,0.00,VWS V14.01,2013-05-07 15:01:00,
2013-05-07 10:02:00,72.1,48.4,30.14,ESE,112,1.3,1.7,43,0.00,,,0.00,VWS V14.01,2013-05-07 15:02:00,
2013-05-07 10:03:00,72.1,48.4,30.13,ESE,112,1.3,1.3,43,0.00,,,0.00,VWS V14.01,2013-05-07 15:03:00,
2013-05-07 10:04:00,72.1,49.0,30.13,ESE,112,0.0,1.3,44,0.00,,,0.00,VWS V14.01,2013-05-07 15:04:00,
2013-05-07 10:05:00,72.1,49.0,30.13,ESE,112,0.0,0.0,44,0.00,,,0.00,VWS V14.01,2013-05-07 15:05:00,
2013-05-07 10:06:00,72.6,47.6,30.13,East,90,0.0,0.0,41,0.00,,,0.00,VWS V14.01,2013-05-07 15:06:00,
2013-05-07 10:07:00,72.6,47.6,30.13,East,90,0.0,0.0,41,0.00,,,0.00,VWS V14.01,2013-05-07 15:07:00,
2013-05-07 10:08:00,73.0,47.3,30.13,ESE,112,3.3,3.3,40,0.00,,,0.00,VWS V14.01,2013-05-07 15:08:00,
2013-05-07 10:09:00,73.0,47.3,30.13,ESE,112,3.3,3.3,40,0.00,,,0.00,VWS V14.01,2013-05-07 15:09:00,
2013-05-07 10:10:00,73.0,47.3,30.13,ESE,112,3.3,3.3,40,0.00,,,0.00,VWS V14.01,2013-05-07 15:10:00,
2013-05-07 10:11:00,72.5,47.5,30.13,ESE,112,1.3,1.3,41,0.00,,,0.00,VWS V14.01,2013-05-07 15:11:00,
2013-05-07 10:12:00,72.3,48.0,30.13,ESE,112,0.0,1.3,42,0.00,,,0.00,VWS V14.01,2013-05-07 15:12:00,
2013-05-07 10:13:00,72.3,48.0,30.13,ESE,112,0.0,0.0,42,0.00,,,0.00,VWS V14.01,2013-05-07 15:13:00,
2013-05-07 10:14:00,72.3,48.0,30.13,ESE,112,0.0,0.0,42,0.00,,,0.00,VWS V14.01,2013-05-07 15:14:00,
2013-05-07 10:15:00,72.3,48.0,30.13,ESE,112,0.0,0.0,42,0.00,,,0.00,VWS V14.01,2013-05-07 15:15:00,
2013-05-07 10:16:00,73.7,48.6,30.13,ESE,112,0.0,0.0,41,0.00,,,0.00,VWS V14.01,2013-05-07 15:16:00,
2013-05-07 10:17:00,74.8,49.5,30.13,ESE,112,0.0,0.0,41,0.00,,,0.00,VWS V14.01,2013-05-07 15:17:00,
2013-05-07 10:18:00,74.8,49.5,30.13,ESE,112,0.0,0.0,41,0.00,,,0.00,VWS V14.01,2013-05-07 15:18:00,
2013-05-07 10:19:00,75.0,49.7,30.13,ESE,112,0.0,0.0,41,0.00,,,0.00,VWS V14.01,2013-05-07 15:19:00,
2013-05-07 10:20:00,75.0,49.7,30.13,ESE,112,0.0,0.0,41,0.00,,,0.00,VWS V14.01,2013-05-07 15:20:00,
2013-05-07 10:21:00,76.1,50.7,30.13,ESE,112,0.0,0.0,41,0.00,,,0.00,VWS V14.01,2013-05-07 15:21:00,
2013-05-07 10:22:00,76.1,50.7,30.13,ESE,112,0.0,0.0,41,0.00,,,0.00,VWS V14.01,2013-05-07 15:22:00,
2013-05-07 10:23:00,77.0,50.2,30.13,ESE,112,0.0,0.0,39,0.00,,,0.00,VWS V14.01,2013-05-07 15:23:00,
2013-05-07 10:24:00,77.0,50.2,30.13,ESE,112,0.0,0.0,39,0.00,,,0.00,VWS V14.01,2013-05-07 15:24:00,
2013-05-07 10:25:00,77.0,50.2,30.13,ESE,112,0.0,0.0,39,0.00,,,0.00,VWS V14.01,2013-05-07 15:25:00,
2013-05-07 10:26:00,77.0,50.2,30.13,ESE,112,0.0,0.0,39,0.00,,,0.00,VWS V14.01,2013-05-07 15:26:00,
2013-05-07 10:27:00,77.3,49.7,30.13,ESE,112,0.0,0.0,38,0.00,,,0.00,VWS V14.01,2013-05-07 15:27:00,
2013-05-07 10:28:00,77.3,49.7,30.13,ESE,112,0.0,0.0,38,0.00,,,0.00,VWS V14.01,2013-05-07 15:28:00,
2013-05-07 10:29:00,75.7,48.3,30.13,East,90,0.6,0.6,38,0.00,,,0.00,VWS V14.01,2013-05-07 15:29:00,
2013-05-07 10:30:00,75.7,48.3,30.13,East,90,0.6,0.6,38,0.00,,,0.00,VWS V14.01,2013-05-07 15:30:00,
2013-05-07 10:31:00,75.7,48.3,30.13,East,90,0.6,0.6,38,0.00,,,0.00,VWS V14.01,2013-05-07 15:31:00,
2013-05-07 10:32:00,75.3,48.7,30.13,ENE,68,0.0,0.6,39,0.00,,,0.00,VWS V14.01,2013-05-07 15:32:00,
2013-05-07 10:33:00,75.3,48.7,30.13,ENE,68,0.0,0.0,39,0.00,,,0.00,VWS V14.01,2013-05-07 15:33:00,
2013-05-07 10:34:00,75.0,48.4,30.13,ESE,112,3.1,3.1,39,0.00,,,0.00,VWS V14.01,2013-05-07 15:34:00,
2013-05-07 10:35:00,75.0,48.4,30.13,ESE,112,3.1,3.1,39,0.00,,,0.00,VWS V14.01,2013-05-07 15:35:00,
2013-05-07 10:36:00,75.0,49.1,30.13,East,90,0.0,3.1,40,0.00,,,0.00,VWS V14.01,2013-05-07 15:36:00,
2013-05-07 10:37:00,75.0,49.1,30.13,East,90,0.0,0.0,40,0.00,,,0.00,VWS V14.01,2013-05-07 15:37:00,
2013-05-07 10:38:00,75.0,47.7,30.13,NE,45,0.0,0.0,38,0.00,,,0.00,VWS V14.01,2013-05-07 15:38:00,
2013-05-07 10:39:00,75.0,47.7,30.13,NE,45,0.0,0.0,38,0.00,,,0.00,VWS V14.01,2013-05-07 15:39:00,
2013-05-07 10:40:00,75.0,47.7,30.13,NE,45,0.0,0.0,38,0.00,,,0.00,VWS V14.01,2013-05-07 15:40:00,
2013-05-07 10:41:00,75.2,49.9,30.13,NE,45,3.3,3.3,41,0.00,,,0.00,VWS V14.01,2013-05-07 15:41:00,
2013-05-07 10:42:00,75.3,48.7,30.13,NE,45,5.5,5.5,39,0.00,,,0.00,VWS V14.01,2013-05-07 15:42:00,
2013-05-07 10:43:00,75.3,48.7,30.13,NE,45,5.5,5.5,39,0.00,,,0.00,VWS V14.01,2013-05-07 15:43:00,
2013-05-07 10:44:00,75.3,48.7,30.13,NE,45,5.5,5.5,39,0.00,,,0.00,VWS V14.01,2013-05-07 15:44:00,
2013-05-07 10:45:00,75.3,48.7,30.13,NE,45,5.5,5.5,39,0.00,,,0.00,VWS V14.01,2013-05-07 15:45:00,
2013-05-07 10:46:00,74.4,48.5,30.13,NE,45,2.9,2.9,40,0.00,,,0.00,VWS V14.01,2013-05-07 15:46:00,
2013-05-07 10:47:00,74.6,48.7,30.13,NE,45,2.9,2.9,40,0.00,,,0.00,VWS V14.01,2013-05-07 15:47:00,
2013-05-07 10:48:00,74.6,48.7,30.13,NE,45,2.9,2.9,40,0.00,,,0.00,VWS V14.01,2013-05-07 15:48:00,
2013-05-07 10:49:00,74.4,47.9,30.13,ENE,68,0.0,2.9,39,0.00,,,0.00,VWS V14.01,2013-05-07 15:49:00,
2013-05-07 10:50:00,74.4,47.9,30.13,ENE,68,0.0,0.0,39,0.00,,,0.00,VWS V14.01,2013-05-07 15:50:00,
2013-05-07 10:51:00,75.0,47.7,30.13,ENE,68,0.0,0.0,38,0.00,,,0.00,VWS V14.01,2013-05-07 15:51:00,
2013-05-07 10:52:00,75.0,47.7,30.13,ENE,68,0.0,0.0,38,0.00,,,0.00,VWS V14.01,2013-05-07 15:52:00,
2013-05-07 10:53:00,75.9,49.2,30.13,ENE,68,0.0,0.0,39,0.00,,,0.00,VWS V14.01,2013-05-07 15:53:00,
2013-05-07 10:54:00,75.9,49.2,30.13,ENE,68,0.0,0.0,39,0.00,,,0.00,VWS V14.01,2013-05-07 15:54:00,
2013-05-07 10:55:00,75.9,49.2,30.13,ENE,68,0.0,0.0,39,0.00,,,0.00,VWS V14.01,2013-05-07 15:55:00,
2013-05-07 10:56:00,76.4,50.3,30.13,SE,135,2.9,2.9,40,0.00,,,0.00,VWS V14.01,2013-05-07 15:56:00,
2013-05-07 10:57:00,75.9,49.9,30.13,ENE,68,2.9,2.9,40,0.00,,,0.00,VWS V14.01,2013-05-07 15:57:00,
2013-05-07 10:58:00,75.9,49.9,30.13,ENE,68,2.9,2.9,40,0.00,,,0.00,VWS V14.01,2013-05-07 15:58:00,
2013-05-07 10:59:00,75.9,48.5,30.13,ENE,68,0.0,2.9,38,0.00,,,0.00,VWS V14.01,2013-05-07 15:59:00,
2013-05-07 11:00:00,75.9,48.5,30.13,ENE,68,0.0,0.0,38,0.00,,,0.00,VWS V14.01,2013-05-07 16:00:00,
2013-05-07 11:01:00,75.9,49.2,30.13,ESE,112,0.0,0.0,39,0.00,,,0.00,VWS V14.01,2013-05-07 16:01:00,
2013-05-07 11:02:00,76.1,49.4,30.13,ESE,112,0.0,0.0,39,0.00,,,0.00,VWS V14.01,2013-05-07 16:02:00,
2013-05-07 11:03:00,76.1,49.4,30.13,ESE,112,0.0,0.0,39,0.00,,,0.00,VWS V14.01,2013-05-07 16:03:00,
2013-05-07 11:04:00,75.9,49.9,30.13,East,90,5.8,5.8,40,0.00,,,0.00,VWS V14.01,2013-05-07 16:04:00,
2013-05-07 11:05:00,75.9,49.9,30.13,East,90,5.8,5.8,40,0.00,,,0.00,VWS V14.01,2013-05-07 16:05:00,
2013-05-07 11:06:00,75.7,49.7,30.13,ESE,112,6.9,6.9,40,0.00,,,0.00,VWS V14.01,2013-05-07 16:06:00,
2013-05-07 11:07:00,75.7,49.7,30.13,ESE,112,6.9,6.9,40,0.00,,,0.00,VWS V14.01,2013-05-07 16:07:00,
2013-05-07 11:08:00,75.2,48.6,30.13,NNE,22,6.0,6.9,39,0.00,,,0.00,VWS V14.01,2013-05-07 16:08:00,
2013-05-07 11:09:00,75.2,48.6,30.13,NNE,22,6.0,6.0,39,0.00,,,0.00,VWS V14.01,2013-05-07 16:09:00,
2013-05-07 11:10:00,75.2,48.6,30.13,NNE,22,6.0,6.0,39,0.00,,,0.00,VWS V14.01,2013-05-07 16:10:00,
2013-05-07 11:11:00,75.2,47.9,30.13,NNE,22,2.6,2.6,38,0.00,,,0.00,VWS V14.01,2013-05-07 16:11:00,
2013-05-07 11:12:00,75.7,48.3,30.13,NNE,22,0.0,2.6,38,0.00,,,0.00,VWS V14.01,2013-05-07 16:12:00,
2013-05-07 11:13:00,75.7,48.3,30.13,NNE,22,0.0,0.0,38,0.00,,,0.00,VWS V14.01,2013-05-07 16:13:00,
2013-05-07 11:14:00,76.8,49.3,30.13,NNE,22,0.0,0.0,38,0.00,,,0.00,VWS V14.01,2013-05-07 16:14:00,
2013-05-07 11:15:00,76.8,49.3,30.13,NNE,22,0.0,0.0,38,0.00,,,0.00,VWS V14.01,2013-05-07 16:15:00,
2013-05-07 11:16:00,78.0,50.4,30.13,NE,45,0.0,0.0,38,0.00,,,0.00,VWS V14.01,2013-05-07 16:16:00,
2013-05-07 11:17:00,78.0,50.4,30.13,NE,45,0.0,0.0,38,0.00,,,0.00,VWS V14.01,2013-05-07 16:17:00,
2013-05-07 11:18:00,78.0,50.4,30.13,NE,45,0.0,0.0,38,0.00,,,0.00,VWS V14.01,2013-05-07 16:18:00,
2013-05-07 11:19:00,77.5,49.9,30.13,East,90,6.9,6.9,38,0.00,,,0.00,VWS V14.01,2013-05-07 16:19:00,
2013-05-07 11:20:00,77.5,49.9,30.13,East,90,6.9,6.9,38,0.00,,,0.00,VWS V14.01,2013-05-07 16:20:00,
2013-05-07 11:21:00,75.9,48.5,30.13,ENE,68,6.7,6.9,38,0.00,,,0.00,VWS V14.01,2013-05-07 16:21:00,
2013-05-07 11:22:00,75.9,48.5,30.13,ENE,68,6.7,6.7,38,0.00,,,0.00,VWS V14.01,2013-05-07 16:22:00,
2013-05-07 11:23:00,74.8,48.2,30.13,ENE,68,6.4,6.7,39,0.00,,,0.00,VWS V14.01,2013-05-07 16:23:00,
2013-05-07 11:24:00,74.8,48.2,30.13,ENE,68,6.4,6.4,39,0.00,,,0.00,VWS V14.01,2013-05-07 16:24:00,
2013-05-07 11:25:00,74.8,48.2,30.13,ENE,68,6.4,6.4,39,0.00,,,0.00,VWS V14.01,2013-05-07 16:25:00,
2013-05-07 11:26:00,74.4,47.9,30.13,East,90,0.8,0.8,39,0.00,,,0.00,VWS V14.01,2013-05-07 16:26:00,
2013-05-07 11:27:00,74.8,48.2,30.13,NE,45,0.0,0.8,39,0.00,,,0.00,VWS V14.01,2013-05-07 16:27:00,
2013-05-07 11:28:00,74.8,48.2,30.13,NE,45,0.0,0.0,39,0.00,,,0.00,VWS V14.01,2013-05-07 16:28:00,
2013-05-07 11:29:00,75.3,48.7,30.13,NE,45,0.0,0.0,39,0.00,,,0.00,VWS V14.01,2013-05-07 16:29:00,
2013-05-07 11:30:00,75.3,48.7,30.13,NE,45,0.0,0.0,39,0.00,,,0.00,VWS V14.01,2013-05-07 16:30:00,
2013-05-07 11:31:00,75.7,48.3,30.13,NE,45,0.6,0.6,38,0.00,,,0.00,VWS V14.01,2013-05-07 16:31:00,
2013-05-07 11:32:00,75.7,48.3,30.13,NE,45,0.6,0.6,38,0.00,,,0.00,VWS V14.01,2013-05-07 16:32:00,
2013-05-07 11:33:00,75.7,48.3,30.13,NE,45,0.6,0.6,38,0.00,,,0.00,VWS V14.01,2013-05-07 16:33:00,
2013-05-07 11:34:00,75.5,48.1,30.13,East,90,6.0,6.0,38,0.00,,,0.00,VWS V14.01,2013-05-07 16:34:00,
2013-05-07 11:35:00,75.5,48.1,30.13,East,90,6.0,6.0,38,0.00,,,0.00,VWS V14.01,2013-05-07 16:35:00,
2013-05-07 11:36:00,75.0,49.1,30.13,NE,45,4.6,6.0,40,0.00,,,0.00,VWS V14.01,2013-05-07 16:36:00,
2013-05-07 11:37:00,75.0,49.1,30.13,NE,45,4.6,4.6,40,0.00,,,0.00,VWS V14.01,2013-05-07 16:37:00,
2013-05-07 11:38:00,75.2,49.2,30.13,NNE,22,4.6,4.6,40,0.00,,,0.00,VWS V14.01,2013-05-07 16:38:00,
2013-05-07 11:39:00,75.2,49.2,30.13,NNE,22,4.6,4.6,40,0.00,,,0.00,VWS V14.01,2013-05-07 16:39:00,
2013-05-07 11:40:00,75.2,49.2,30.13,NNE,22,4.6,4.6,40,0.00,,,0.00,VWS V14.01,2013-05-07 16:40:00,
2013-05-07 11:41:00,75.5,48.8,30.12,NE,45,8.7,8.7,39,0.00,,,0.00,VWS V14.01,2013-05-07 16:41:00,
2013-05-07 11:42:00,74.8,48.2,30.12,East,90,8.0,8.7,39,0.00,,,0.00,VWS V14.01,2013-05-07 16:42:00,
2013-05-07 11:43:00,74.8,48.2,30.12,East,90,8.0,8.0,39,0.00,,,0.00,VWS V14.01,2013-05-07 16:43:00,
2013-05-07 11:44:00,74.4,47.9,30.12,East,90,4.2,8.0,39,0.00,,,0.00,VWS V14.01,2013-05-07 16:44:00,
2013-05-07 11:45:00,74.4,47.9,30.12,East,90,4.2,4.2,39,0.00,,,0.00,VWS V14.01,2013-05-07 16:45:00,
2013-05-07 11:46:00,74.4,48.5,30.12,ESE,112,2.0,4.2,40,0.00,,,0.00,VWS V14.01,2013-05-07 16:46:00,
2013-05-07 11:47:00,74.3,48.4,30.12,ESE,112,2.0,2.0,40,0.00,,,0.00,VWS V14.01,2013-05-07 16:47:00,
2013-05-07 11:48:00,74.3,48.4,30.13,ESE,112,2.0,2.0,40,0.00,,,0.00,VWS V14.01,2013-05-07 16:48:00,
2013-05-07 11:49:00,75.0,49.1,30.12,NE,45,0.0,2.0,40,0.00,,,0.00,VWS V14.01,2013-05-07 16:49:00,
2013-05-07 11:50:00,75.0,49.1,30.12,NE,45,0.0,0.0,40,0.00,,,0.00,VWS V14.01,2013-05-07 16:50:00,
2013-05-07 11:51:00,75.0,49.1,30.12,NE,45,7.1,7.1,40,0.00,,,0.00,VWS V14.01,2013-05-07 16:51:00,
2013-05-07 11:52:00,75.0,49.1,30.12,NE,45,7.1,7.1,40,0.00,,,0.00,VWS V14.01,2013-05-07 16:52:00,
2013-05-07 11:53:00,74.8,48.2,30.12,NNE,22,2.6,7.1,39,0.00,,,0.00,VWS V14.01,2013-05-07 16:53:00,
2013-05-07 11:54:00,74.8,48.2,30.12,NNE,22,2.6,2.6,39,0.00,,,0.00,VWS V14.01,2013-05-07 16:54:00,
2013-05-07 11:55:00,74.8,48.2,30.12,NNE,22,2.6,2.6,39,0.00,,,0.00,VWS V14.01,2013-05-07 16:55:00,
2013-05-07 11:56:00,75.0,48.4,30.13,ENE,68,6.7,6.7,39,0.00,,,0.00,VWS V14.01,2013-05-07 16:56:00,
2013-05-07 11:57:00,74.8,48.2,30.13,East,90,2.9,6.7,39,0.00,,,0.00,VWS V14.01,2013-05-07 16:57:00,
2013-05-07 11:58:00,74.8,48.2,30.13,East,90,2.9,2.9,39,0.00,,,0.00,VWS V14.01,2013-05-07 16:58:00,
2013-05-07 11:59:00,75.0,50.4,30.13,East,90,4.4,4.4,42,0.00,,,0.00,VWS V14.01,2013-05-07 16:59:00,
2013-05-07 12:00:00,75.0,50.4,30.13,East,90,4.4,4.4,42,0.00,,,0.00,VWS V14.01,2013-05-07 17:00:00,
2013-05-07 12:01:00,75.0,49.1,30.12,East,90,1.1,4.4,40,0.00,,,0.00,VWS V14.01,2013-05-07 17:01:00,
2013-05-07 12:02:00,75.3,49.3,30.13,East,90,1.1,1.1,40,0.00,,,0.00,VWS V14.01,2013-05-07 17:02:00,
2013-05-07 12:03:00,75.3,49.3,30.12,East,90,1.1,1.1,40,0.00,,,0.00,VWS V14.01,2013-05-07 17:03:00,
2013-05-07 12:04:00,75.3,49.3,30.12,NNE,22,6.7,6.7,40,0.00,,,0.00,VWS V14.01,2013-05-07 17:04:00,
2013-05-07 12:05:00,75.3,49.3,30.12,NNE,22,6.7,6.7,40,0.00,,,0.00,VWS V14.01,2013-05-07 17:05:00,
2013-05-07 12:06:00,75.5,50.2,30.12,NNE,22,1.1,6.7,41,0.00,,,0.00,VWS V14.01,2013-05-07 17:06:00,
2013-05-07 12:07:00,75.5,50.2,30.12,NNE,22,1.1,1.1,41,0.00,,,0.00,VWS V14.01,2013-05-07 17:07:00,
2013-05-07 12:08:00,76.1,50.0,30.12,ESE,112,9.8,9.8,40,0.00,,,0.00,VWS V14.01,2013-05-07 17:08:00,
2013-05-07 12:09:00,76.1,50.0,30.12,ESE,112,9.8,9.8,40,0.00,,,0.00,VWS V14.01,2013-05-07 17:09:00,
2013-05-07 12:10:00,76.1,50.0,30.12,ESE,112,9.8,9.8,40,0.00,,,0.00,VWS V14.01,2013-05-07 17:10:00,
2013-05-07 12:11:00,75.7,51.0,30.12,ESE,112,9.8,9.8,42,0.00,,,0.00,VWS V14.01,2013-05-07 17:11:00,
2013-05-07 12:12:00,75.2,48.6,30.12,NE,45,9.3,9.8,39,0.00,,,0.00,VWS V14.01,2013-05-07 17:12:00,
2013-05-07 12:13:00,75.2,48.6,30.12,NE,45,9.3,9.3,39,0.00,,,0.00,VWS V14.01,2013-05-07 17:13:00,
2013-05-07 12:14:00,75.0,49.1,30.12,NNE,22,1.5,9.3,40,0.00,,,0.00,VWS V14.01,2013-05-07 17:14:00,
2013-05-07 12:15:00,75.0,49.1,30.12,NNE,22,1.5,1.5,40,0.00,,,0.00,VWS V14.01,2013-05-07 17:15:00,
2013-05-07 12:16:00,75.3,48.7,30.12,NE,45,3.8,3.8,39,0.00,,,0.00,VWS V14.01,2013-05-07 17:16:00,
2013-05-07 12:17:00,75.3,48.7,30.12,NE,45,3.8,3.8,39,0.00,,,0.00,VWS V14.01,2013-05-07 17:17:00,
2013-05-07 12:18:00,75.3,49.3,30.12,NE,45,3.8,3.8,40,0.00,,,0.00,VWS V14.01,2013-05-07 17:18:00,
2013-05-07 12:19:00,75.3,49.3,30.12,ESE,112,1.1,3.8,40,0.00,,,0.00,VWS V14.01,2013-05-07 17:19:00,
2013-05-07 12:20:00,75.3,49.3,30.12,ESE,112,1.1,1.1,40,0.00,,,0.00,VWS V14.01,2013-05-07 17:20:00,
2013-05-07 12:21:00,75.3,48.7,30.12,SE,135,6.9,6.9,39,0.00,,,0.00,VWS V14.01,2013-05-07 17:21:00,
2013-05-07 12:22:00,75.3,48.7,30.12,SE,135,6.9,6.9,39,0.00,,,0.00,VWS V14.01,2013-05-07 17:22:00,
2013-05-07 12:23:00,75.2,48.6,30.12,East,90,7.3,7.3,39,0.00,,,0.00,VWS V14.01,2013-05-07 17:23:00,
2013-05-07 12:24:00,75.2,48.6,30.12,East,90,7.3,7.3,39,0.00,,,0.00,VWS V14.01,2013-05-07 17:24:00,
2013-05-07 12:25:00,75.2,48.6,30.12,East,90,7.3,7.3,39,0.00,,,0.00,VWS V14.01,2013-05-07 17:25:00,
2013-05-07 12:26:00,75.0,49.7,30.11,ENE,68,7.3,7.3,41,0.00,,,0.00,VWS V14.01,2013-05-07 17:26:00,
2013-05-07 12:27:00,75.0,48.4,30.11,ENE,68,0.6,7.3,39,0.00,,,0.00,VWS V14.01,2013-05-07 17:27:00,
2013-05-07 12:28:00,75.0,48.4,30.11,ENE,68,0.6,0.6,39,0.00,,,0.00,VWS V14.01,2013-05-07 17:28:00,
2013-05-07 12:29:00,75.5,48.8,30.11,East,90,7.1,7.1,39,0.00,,,0.00,VWS V14.01,2013-05-07 17:29:00,
2013-05-07 12:30:00,75.5,48.8,30.11,East,90,7.1,7.1,39,0.00,,,0.00,VWS V14.01,2013-05-07 17:30:00,
2013-05-07 12:31:00,75.5,47.4,30.11,East,90,5.5,7.1,37,0.00,,,0.00,VWS V14.01,2013-05-07 17:31:00,
2013-05-07 12:32:00,75.0,47.0,30.11,East,90,5.5,5.5,37,0.00,,,0.00,VWS V14.01,2013-05-07 17:32:00,
2013-05-07 12:33:00,75.0,47.7,30.11,East,90,5.5,5.5,38,0.00,,,0.00,VWS V14.01,2013-05-07 17:33:00,
2013-05-07 12:34:00,75.0,47.7,30.11,ESE,112,2.0,5.5,38,0.00,,,0.00,VWS V14.01,2013-05-07 17:34:00,
2013-05-07 12:35:00,75.0,47.7,30.11,ESE,112,2.0,2.0,38,0.00,,,0.00,VWS V14.01,2013-05-07 17:35:00,
2013-05-07 12:36:00,75.5,48.8,30.11,ESE,112,0.0,2.0,39,0.00,,,0.00,VWS V14.01,2013-05-07 17:36:00,
2013-05-07 12:37:00,75.5,48.8,30.11,ESE,112,0.0,0.0,39,0.00,,,0.00,VWS V14.01,2013-05-07 17:37:00,
2013-05-07 12:38:00,76.4,49.6,30.11,SSE,158,2.4,2.4,39,0.00,,,0.00,VWS V14.01,2013-05-07 17:38:00,
2013-05-07 12:39:00,76.4,49.6,30.11,SSE,158,2.4,2.4,39,0.00,,,0.00,VWS V14.01,2013-05-07 17:39:00,
2013-05-07 12:40:00,76.4,49.6,30.11,SSE,158,2.4,2.4,39,0.00,,,0.00,VWS V14.01,2013-05-07 17:40:00,
2013-05-07 12:41:00,76.2,48.8,30.11,SE,135,0.6,0.6,38,0.00,,,0.00,VWS V14.01,2013-05-07 17:41:00,
2013-05-07 12:42:00,76.4,51.0,30.11,East,90,2.9,2.9,41,0.00,,,0.00,VWS V14.01,2013-05-07 17:42:00,
2013-05-07 12:43:00,76.4,51.0,30.11,East,90,2.9,2.9,41,0.00,,,0.00,VWS V14.01,2013-05-07 17:43:00,
2013-05-07 12:44:00,77.0,51.5,30.11,NNE,22,1.7,2.9,41,0.00,,,0.00,VWS V14.01,2013-05-07 17:44:00,
2013-05-07 12:45:00,77.0,51.5,30.11,NNE,22,1.7,1.7,41,0.00,,,0.00,VWS V14.01,2013-05-07 17:45:00,
2013-05-07 12:46:00,77.5,49.9,30.11,NNE,22,4.9,4.9,38,0.00,,,0.00,VWS V14.01,2013-05-07 17:46:00,
2013-05-07 12:47:00,77.5,49.9,30.11,NNE,22,4.9,4.9,38,0.00,,,0.00,VWS V14.01,2013-05-07 17:47:00,
2013-05-07 12:48:00,77.7,50.1,30.11,NNE,22,4.9,4.9,38,0.00,,,0.00,VWS V14.01,2013-05-07 17:48:00,
2013-05-07 12:49:00,77.7,52.2,30.11,North,0,4.9,4.9,41,0.00,,,0.00,VWS V14.01,2013-05-07 17:49:00,
2013-05-07 12:50:00,77.7,52.2,30.11,North,0,4.9,4.9,41,0.00,,,0.00,VWS V14.01,2013-05-07 17:50:00,
2013-05-07 12:51:00,77.9,51.7,30.11,NNE,22,8.0,8.0,40,0.00,,,0.00,VWS V14.01,2013-05-07 17:51:00,
2013-05-07 12:52:00,77.9,51.7,30.11,NNE,22,8.0,8.0,40,0.00,,,0.00,VWS V14.01,2013-05-07 17:52:00,
2013-05-07 12:53:00,77.0,47.3,30.11,NE,45,8.7,8.7,35,0.00,,,0.00,VWS V14.01,2013-05-07 17:53:00,
2013-05-07 12:54:00,77.0,47.3,30.11,NE,45,8.7,8.7,35,0.00,,,0.00,VWS V14.01,2013-05-07 17:54:00,
2013-05-07 12:55:00,77.0,47.3,30.11,NE,45,8.7,8.7,35,0.00,,,0.00,VWS V14.01,2013-05-07 17:55:00,
2013-05-07 12:56:00,76.1,47.2,30.11,ENE,68,8.0,8.0,36,0.00,,,0.00,VWS V14.01,2013-05-07 17:56:00,
2013-05-07 12:57:00,75.5,47.4,30.11,East,90,6.7,8.0,37,0.00,,,0.00,VWS V14.01,2013-05-07 17:57:00,
2013-05-07 12:58:00,75.5,47.4,30.11,East,90,6.7,6.7,37,0.00,,,0.00,VWS V14.01,2013-05-07 17:58:00,
2013-05-07 12:59:00,75.3,47.3,30.11,ESE,112,3.8,6.7,37,0.00,,,0.00,VWS V14.01,2013-05-07 17:59:00,
2013-05-07 13:00:00,75.3,47.3,30.11,ESE,112,3.8,3.8,37,0.00,,,0.00,VWS V14.01,2013-05-07 18:00:00,
2013-05-07 13:01:00,75.2,47.2,30.11,East,90,4.2,4.2,37,0.00,,,0.00,VWS V14.01,2013-05-07 18:01:00,
2013-05-07 13:02:00,75.2,47.2,30.11,East,90,4.2,4.2,37,0.00,,,0.00,VWS V14.01,2013-05-07 18:02:00,
2013-05-07 13:03:00,75.3,47.3,30.11,East,90,0.0,4.2,37,0.00,,,0.00,VWS V14.01,2013-05-07 18:03:00,
2013-05-07 13:04:00,75.3,47.3,30.11,East,90,0.0,0.0,37,0.00,,,0.00,VWS V14.01,2013-05-07 18:04:00,
2013-05-07 13:05:00,75.3,47.3,30.11,East,90,0.0,0.0,37,0.00,,,0.00,VWS V14.01,2013-05-07 18:05:00,
2013-05-07 13:06:00,76.2,49.5,30.11,East,90,1.3,1.3,39,0.00,,,0.00,VWS V14.01,2013-05-07 18:06:00,
2013-05-07 13:07:00,76.2,49.5,30.11,East,90,1.3,1.3,39,0.00,,,0.00,VWS V14.01,2013-05-07 18:07:00,
2013-05-07 13:08:00,76.2,48.0,30.11,NE,45,6.7,6.7,37,0.00,,,0.00,VWS V14.01,2013-05-07 18:08:00,
2013-05-07 13:09:00,76.2,48.0,30.11,NE,45,6.7,6.7,37,0.00,,,0.00,VWS V14.01,2013-05-07 18:09:00,
2013-05-07 13:10:00,76.2,48.0,30.11,NE,45,6.7,6.7,37,0.00,,,0.00,VWS V14.01,2013-05-07 18:10:00,
2013-05-07 13:11:00,76.2,47.3,30.11,NNE,22,7.6,7.6,36,0.00,,,0.00,VWS V14.01,2013-05-07 18:11:00,
2013-05-07 13:12:00,76.1,45.7,30.11,NNE,22,2.4,7.6,34,0.00,,,0.00,VWS V14.01,2013-05-07 18:12:00,
2013-05-07 13:13:00,76.1,45.7,30.11,NNE,22,2.4,2.4,34,0.00,,,0.00,VWS V14.01,2013-05-07 18:13:00,
2013-05-07 13:14:00,76.4,48.2,30.11,NNE,22,7.3,7.3,37,0.00,,,0.00,VWS V14.01,2013-05-07 18:14:00,
2013-05-07 13:15:00,76.4,48.2,30.11,NNE,22,7.3,7.3,37,0.00,,,0.00,VWS V14.01,2013-05-07 18:15:00,
2013-05-07 13:16:00,76.6,48.4,30.10,North,0,4.0,7.3,37,0.00,,,0.00,VWS V14.01,2013-05-07 18:16:00,
2013-05-07 13:17:00,76.6,48.4,30.10,North,0,4.0,4.0,37,0.00,,,0.00,VWS V14.01,2013-05-07 18:17:00,
2013-05-07 13:18:00,76.6,48.4,30.10,North,0,0.0,4.0,37,0.00,,,0.00,VWS V14.01,2013-05-07 18:18:00,
2013-05-07 13:19:00,76.8,47.8,30.10,North,0,0.0,0.0,36,0.00,,,0.00,VWS V14.01,2013-05-07 18:19:00,
2013-05-07 13:20:00,76.8,47.8,30.10,North,0,0.0,0.0,36,0.00,,,0.00,VWS V14.01,2013-05-07 18:20:00,
2013-05-07 13:21:00,77.3,48.3,30.10,NNE,22,0.8,0.8,36,0.00,,,0.00,VWS V14.01,2013-05-07 18:21:00,
2013-05-07 13:22:00,77.3,48.3,30.10,NNE,22,0.8,0.8,36,0.00,,,0.00,VWS V14.01,2013-05-07 18:22:00,
2013-05-07 13:23:00,77.1,47.4,30.10,NE,45,0.0,0.8,35,0.00,,,0.00,VWS V14.01,2013-05-07 18:23:00,
2013-05-07 13:24:00,77.1,47.4,30.10,NE,45,0.0,0.0,35,0.00,,,0.00,VWS V14.01,2013-05-07 18:24:00,
2013-05-07 13:25:00,77.1,47.4,30.10,NE,45,0.0,0.0,35,0.00,,,0.00,VWS V14.01,2013-05-07 18:25:00,
2013-05-07 13:26:00,77.3,47.5,30.10,NE,45,5.1,5.1,35,0.00,,,0.00,VWS V14.01,2013-05-07 18:26:00,
2013-05-07 13:27:00,77.1,48.1,30.10,North,0,2.9,5.1,36,0.00,,,0.00,VWS V14.01,2013-05-07 18:27:00,
2013-05-07 13:28:00,77.1,48.1,30.10,North,0,2.9,2.9,36,0.00,,,0.00,VWS V14.01,2013-05-07 18:28:00,
2013-05-07 13:29:00,77.3,48.3,30.10,WNW,292,2.6,2.9,36,0.00,,,0.00,VWS V14.01,2013-05-07 18:29:00,
2013-05-07 13:30:00,77.3,48.3,30.10,WNW,292,2.6,2.6,36,0.00,,,0.00,VWS V14.01,2013-05-07 18:30:00,
2013-05-07 13:31:00,77.7,47.9,30.10,WNW,292,2.6,2.6,35,0.00,,,0.00,VWS V14.01,2013-05-07 18:31:00,
2013-05-07 13:32:00,77.7,47.9,30.10,WNW,292,2.6,2.6,35,0.00,,,0.00,VWS V14.01,2013-05-07 18:32:00,
2013-05-07 13:33:00,78.0,48.9,30.10,WNW,292,0.0,2.6,36,0.00,,,0.00,VWS V14.01,2013-05-07 18:33:00,
2013-05-07 13:34:00,78.0,48.9,30.10,WNW,292,0.0,0.0,36,0.00,,,0.00,VWS V14.01,2013-05-07 18:34:00,
2013-05-07 13:35:00,78.0,48.9,30.10,WNW,292,0.0,0.0,36,0.00,,,0.00,VWS V14.01,2013-05-07 18:35:00,
2013-05-07 13:36:00,78.4,49.3,30.10,West,270,1.3,1.3,36,0.00,,,0.00,VWS V14.01,2013-05-07 18:36:00,
2013-05-07 13:37:00,78.4,49.3,30.10,West,270,1.3,1.3,36,0.00,,,0.00,VWS V14.01,2013-05-07 18:37:00,
2013-05-07 13:38:00,78.6,49.4,30.10,WNW,292,0.4,1.3,36,0.00,,,0.00,VWS V14.01,2013-05-07 18:38:00,
2013-05-07 13:39:00,78.6,49.4,30.10,WNW,292,0.4,0.4,36,0.00,,,0.00,VWS V14.01,2013-05-07 18:39:00,
2013-05-07 13:40:00,78.6,49.4,30.10,WNW,292,0.4,0.4,36,0.00,,,0.00,VWS V14.01,2013-05-07 18:40:00,
2013-05-07 13:41:00,78.9,50.4,30.10,North,0,4.0,4.0,37,0.00,,,0.00,VWS V14.01,2013-05-07 18:41:00,
2013-05-07 13:42:00,79.1,49.9,30.10,NW,315,4.2,4.2,36,0.00,,,0.00,VWS V14.01,2013-05-07 18:42:00,
2013-05-07 13:43:00,79.1,49.9,30.10,NW,315,4.2,4.2,36,0.00,,,0.00,VWS V14.01,2013-05-07 18:43:00,
2013-05-07 13:44:00,78.6,49.4,30.10,East,90,4.2,4.2,36,0.00,,,0.00,VWS V14.01,2013-05-07 18:44:00,
2013-05-07 13:45:00,78.6,49.4,30.10,East,90,4.2,4.2,36,0.00,,,0.00,VWS V14.01,2013-05-07 18:45:00,
2013-05-07 13:46:00,77.9,48.8,30.10,NNE,22,3.3,4.2,36,0.00,,,0.00,VWS V14.01,2013-05-07 18:46:00,
2013-05-07 13:47:00,77.9,48.8,30.10,NNE,22,3.3,3.3,36,0.00,,,0.00,VWS V14.01,2013-05-07 18:47:00,
2013-05-07 13:48:00,77.9,48.1,30.10,ENE,68,6.4,6.4,35,0.00,,,0.00,VWS V14.01,2013-05-07 18:48:00,
2013-05-07 13:49:00,77.5,47.7,30.10,ENE,68,6.4,6.4,35,0.00,,,0.00,VWS V14.01,2013-05-07 18:49:00,
2013-05-07 13:50:00,77.5,47.7,30.10,ENE,68,6.4,6.4,35,0.00,,,0.00,VWS V14.01,2013-05-07 18:50:00,
2013-05-07 13:51:00,77.0,45.7,30.10,ENE,68,4.6,4.6,33,0.00,,,0.00,VWS V14.01,2013-05-07 18:51:00,
2013-05-07 13:52:00,77.0,45.7,30.10,ENE,68,4.6,4.6,33,0.00,,,0.00,VWS V14.01,2013-05-07 18:52:00,
2013-05-07 13:53:00,77.0,47.3,30.10,ENE,68,0.0,4.6,35,0.00,,,0.00,VWS V14.01,2013-05-07 18:53:00,
2013-05-07 13:54:00,77.0,47.3,30.10,ENE,68,0.0,0.0,35,0.00,,,0.00,VWS V14.01,2013-05-07 18:54:00,
2013-05-07 13:55:00,77.0,47.3,30.10,ENE,68,0.0,0.0,35,0.00,,,0.00,VWS V14.01,2013-05-07 18:55:00,
2013-05-07 13:56:00,77.7,48.7,30.10,East,90,1.3,1.3,36,0.00,,,0.00,VWS V14.01,2013-05-07 18:56:00,
2013-05-07 13:57:00,77.9,48.8,30.10,ENE,68,1.7,1.7,36,0.00,,,0.00,VWS V14.01,2013-05-07 18:57:00,
2013-05-07 13:58:00,77.9,48.8,30.10,ENE,68,1.7,1.7,36,0.00,,,0.00,VWS V14.01,2013-05-07 18:58:00,
2013-05-07 13:59:00,78.0,49.7,30.10,SSW,202,3.3,3.3,37,0.00,,,0.00,VWS V14.01,2013-05-07 18:59:00,
2013-05-07 14:00:00,78.0,49.7,30.10,SSW,202,3.3,3.3,37,0.00,,,0.00,VWS V14.01,2013-05-07 19:00:00,
2013-05-07 14:01:00,78.0,46.6,30.10,NNE,22,6.7,6.7,33,0.00,,,0.00,VWS V14.01,2013-05-07 19:01:00,
2013-05-07 14:02:00,78.0,46.6,30.10,NNE,22,6.7,6.7,33,0.00,,,0.00,VWS V14.01,2013-05-07 19:02:00,
2013-05-07 14:03:00,77.5,46.2,30.10,NE,45,0.8,6.7,33,0.00,,,0.00,VWS V14.01,2013-05-07 19:03:00,
2013-05-07 14:04:00,77.5,46.2,30.10,NE,45,0.8,0.8,33,0.00,,,0.00,VWS V14.01,2013-05-07 19:04:00,
2013-05-07 14:05:00,77.5,46.2,30.10,NE,45,0.8,0.8,33,0.00,,,0.00,VWS V14.01,2013-05-07 19:05:00,
2013-05-07 14:06:00,77.5,46.2,30.10,NNE,22,2.9,2.9,33,0.00,,,0.00,VWS V14.01,2013-05-07 19:06:00,
2013-05-07 14:07:00,77.5,46.2,30.10,NNE,22,2.9,2.9,33,0.00,,,0.00,VWS V14.01,2013-05-07 19:07:00,
2013-05-07 14:08:00,77.7,47.9,30.10,WNW,292,3.1,3.1,35,0.00,,,0.00,VWS V14.01,2013-05-07 19:08:00,
2013-05-07 14:09:00,77.7,47.9,30.10,WNW,292,3.1,3.1,35,0.00,,,0.00,VWS V14.01,2013-05-07 19:09:00,
2013-05-07 14:10:00,77.7,47.9,30.10,WNW,292,3.1,3.1,35,0.00,,,0.00,VWS V14.01,2013-05-07 19:10:00,
2013-05-07 14:11:00,78.2,49.1,30.10,WNW,292,0.0,0.0,36,0.00,,,0.00,VWS V14.01,2013-05-07 19:11:00,
2013-05-07 14:12:00,78.6,48.7,30.10,WNW,292,0.0,0.0,35,0.00,,,0.00,VWS V14.01,2013-05-07 19:12:00,
2013-05-07 14:13:00,78.6,48.7,30.09,WNW,292,0.0,0.0,35,0.00,,,0.00,VWS V14.01,2013-05-07 19:13:00,
2013-05-07 14:14:00,79.3,50.1,30.10,WNW,292,0.0,0.0,36,0.00,,,0.00,VWS V14.01,2013-05-07 19:14:00,
2013-05-07 14:15:00,79.3,50.1,30.10,WNW,292,0.0,0.0,36,0.00,,,0.00,VWS V14.01,2013-05-07 19:15:00,
2013-05-07 14:16:00,79.5,48.7,30.10,SW,225,0.0,0.0,34,0.00,,,0.00,VWS V14.01,2013-05-07 19:16:00,
2013-05-07 14:17:00,79.5,48.7,30.10,SW,225,0.0,0.0,34,0.00,,,0.00,VWS V14.01,2013-05-07 19:17:00,
2013-05-07 14:18:00,79.8,49.7,30.10,SW,225,1.3,1.3,35,0.00,,,0.00,VWS V14.01,2013-05-07 19:18:00,
2013-05-07 14:19:00,79.8,49.7,30.10,SW,225,1.3,1.3,35,0.00,,,0.00,VWS V14.01,2013-05-07 19:19:00,
2013-05-07 14:20:00,79.8,49.7,30.10,SW,225,1.3,1.3,35,0.00,,,0.00,VWS V14.01,2013-05-07 19:20:00,
2013-05-07 14:21:00,79.8,49.0,30.10,WSW,248,2.2,2.2,34,0.00,,,0.00,VWS V14.01,2013-05-07 19:21:00,
2013-05-07 14:22:00,79.8,49.0,30.09,WSW,248,2.2,2.2,34,0.00,,,0.00,VWS V14.01,2013-05-07 19:22:00,
2013-05-07 14:23:00,79.8,47.3,30.10,SSW,202,2.4,2.4,32,0.00,,,0.00,VWS V14.01,2013-05-07 19:23:00,
2013-05-07 14:24:00,79.8,47.3,30.10,SSW,202,2.4,2.4,32,0.00,,,0.00,VWS V14.01,2013-05-07 19:24:00,
2013-05-07 14:25:00,79.8,47.3,30.10,SSW,202,2.4,2.4,32,0.00,,,0.00,VWS V14.01,2013-05-07 19:25:00,
2013-05-07 14:26:00,79.8,49.0,30.09,SW,225,5.5,5.5,34,0.00,,,0.00,VWS V14.01,2013-05-07 19:26:00,
2013-05-07 14:27:00,79.7,47.3,30.09,SW,225,0.0,5.5,32,0.00,,,0.00,VWS V14.01,2013-05-07 19:27:00,
2013-05-07 14:28:00,79.7,47.3,30.10,SW,225,0.0,0.0,32,0.00,,,0.00,VWS V14.01,2013-05-07 19:28:00,
2013-05-07 14:29:00,79.7,47.3,30.10,WSW,248,0.0,0.0,32,0.00,,,0.00,VWS V14.01,2013-05-07 19:29:00,
2013-05-07 14:30:00,79.7,47.3,30.10,WSW,248,0.0,0.0,32,0.00,,,0.00,VWS V14.01,2013-05-07 19:30:00,
2013-05-07 14:31:00,80.2,47.7,30.10,WSW,248,0.0,0.0,32,0.00,,,0.00,VWS V14.01,2013-05-07 19:31:00,
2013-05-07 14:32:00,80.2,47.7,30.10,WSW,248,0.0,0.0,32,0.00,,,0.00,VWS V14.01,2013-05-07 19:32:00,
2013-05-07 14:33:00,80.7,49.8,30.09,West,270,0.8,0.8,34,0.00,,,0.00,VWS V14.01,2013-05-07 19:33:00,
2013-05-07 14:34:00,80.7,49.8,30.09,West,270,0.8,0.8,34,0.00,,,0.00,VWS V14.01,2013-05-07 19:34:00,
2013-05-07 14:35:00,80.7,49.8,30.09,West,270,0.8,0.8,34,0.00,,,0.00,VWS V14.01,2013-05-07 19:35:00,
2013-05-07 14:36:00,81.1,51.7,30.09,West,270,0.0,0.0,36,0.00,,,0.00,VWS V14.01,2013-05-07 19:36:00,
2013-05-07 14:37:00,81.3,51.8,30.09,West,270,0.0,0.0,36,0.00,,,0.00,VWS V14.01,2013-05-07 19:37:00,
2013-05-07 14:38:00,81.3,50.3,30.09,NE,45,0.0,0.0,34,0.00,,,0.00,VWS V14.01,2013-05-07 19:38:00,
2013-05-07 14:39:00,81.3,50.3,30.09,NE,45,0.0,0.0,34,0.00,,,0.00,VWS V14.01,2013-05-07 19:39:00,
2013-05-07 14:40:00,81.3,50.3,30.09,NE,45,0.0,0.0,34,0.00,,,0.00,VWS V14.01,2013-05-07 19:40:00,
2013-05-07 14:41:00,80.9,49.9,30.09,NE,45,6.7,6.7,34,0.00,,,0.00,VWS V14.01,2013-05-07 19:41:00,
2013-05-07 14:42:00,79.5,48.7,30.09,East,90,5.8,6.7,34,0.00,,,0.00,VWS V14.01,2013-05-07 19:42:00,
2013-05-07 14:43:00,79.5,48.7,30.09,East,90,5.8,5.8,34,0.00,,,0.00,VWS V14.01,2013-05-07 19:43:00,
2013-05-07 14:44:00,78.4,46.1,30.09,East,90,2.4,5.8,32,0.00,,,0.00,VWS V14.01,2013-05-07 19:44:00,
2013-05-07 14:45:00,78.4,46.1,30.09,East,90,2.4,2.4,32,0.00,,,0.00,VWS V14.01,2013-05-07 19:45:00,
2013-05-07 14:46:00,78.0,46.6,30.09,ENE,68,0.0,2.4,33,0.00,,,0.00,VWS V14.01,2013-05-07 19:46:00,
2013-05-07 14:47:00,78.0,46.6,30.09,ENE,68,0.0,0.0,33,0.00,,,0.00,VWS V14.01,2013-05-07 19:47:00,
2013-05-07 14:48:00,78.4,47.0,30.09,East,90,0.0,0.0,33,0.00,,,0.00,VWS V14.01,2013-05-07 19:48:00,
2013-05-07 14:49:00,78.4,47.0,30.09,East,90,0.0,0.0,33,0.00,,,0.00,VWS V14.01,2013-05-07 19:49:00,
2013-05-07 14:50:00,78.4,47.0,30.09,East,90,0.0,0.0,33,0.00,,,0.00,VWS V14.01,2013-05-07 19:50:00,
2013-05-07 14:51:00,78.6,48.7,30.09,East,90,3.1,3.1,35,0.00,,,0.00,VWS V14.01,2013-05-07 19:51:00,
2013-05-07 14:52:00,78.6,48.7,30.08,ESE,112,2.6,3.1,35,0.00,,,0.00,VWS V14.01,2013-05-07 19:52:00,
2013-05-07 14:53:00,78.0,48.2,30.09,ESE,112,2.6,2.6,35,0.00,,,0.00,VWS V14.01,2013-05-07 19:53:00,
2013-05-07 14:54:00,78.0,48.2,30.08,ESE,112,2.6,2.6,35,0.00,,,0.00,VWS V14.01,2013-05-07 19:54:00,
2013-05-07 14:55:00,78.0,48.2,30.08,ESE,112,2.6,2.6,35,0.00,,,0.00,VWS V14.01,2013-05-07 19:55:00,
2013-05-07 14:56:00,77.7,47.9,30.08,SE,135,0.0,0.0,35,0.00,,,0.00,VWS V14.01,2013-05-07 19:56:00,
2013-05-07 14:57:00,78.0,48.9,30.08,East,90,1.5,1.5,36,0.00,,,0.00,VWS V14.01,2013-05-07 19:57:00,
2013-05-07 14:58:00,78.0,48.9,30.08,East,90,1.5,1.5,36,0.00,,,0.00,VWS V14.01,2013-05-07 19:58:00,
2013-05-07 14:59:00,78.4,48.5,30.08,ENE,68,0.0,1.5,35,0.00,,,0.00,VWS V14.01,2013-05-07 19:59:00,
2013-05-07 15:00:00,78.4,48.5,30.08,ENE,68,0.0,0.0,35,0.00,,,0.00,VWS V14.01,2013-05-07 20:00:00,
2013-05-07 15:01:00,78.6,47.1,30.08,ENE,68,1.1,1.1,33,0.00,,,0.00,VWS V14.01,2013-05-07 20:01:00,
2013-05-07 15:02:00,78.6,47.1,30.08,ENE,68,1.1,1.1,33,0.00,,,0.00,VWS V14.01,2013-05-07 20:02:00,
2013-05-07 15:03:00,78.6,47.1,30.08,SSE,158,0.0,1.1,33,0.00,,,0.00,VWS V14.01,2013-05-07 20:03:00,
2013-05-07 15:04:00,78.6,47.1,30.08,SSE,158,0.0,0.0,33,0.00,,,0.00,VWS V14.01,2013-05-07 20:04:00,
2013-05-07 15:05:00,78.6,47.1,30.08,SSE,158,0.0,0.0,33,0.00,,,0.00,VWS V14.01,2013-05-07 20:05:00,
2013-05-07 15:06:00,78.6,47.1,30.08,SSE,158,0.0,0.0,33,0.00,,,0.00,VWS V14.01,2013-05-07 20:06:00,
2013-05-07 15:07:00,78.6,47.1,30.08,SSE,158,0.0,0.0,33,0.00,,,0.00,VWS V14.01,2013-05-07 20:07:00,
2013-05-07 15:08:00,78.9,46.6,30.08,SSE,158,0.0,0.0,32,0.00,,,0.00,VWS V14.01,2013-05-07 20:08:00,
2013-05-07 15:09:00,78.9,46.6,30.08,SSE,158,0.0,0.0,32,0.00,,,0.00,VWS V14.01,2013-05-07 20:09:00,
2013-05-07 15:10:00,78.9,46.6,30.08,SSE,158,0.0,0.0,32,0.00,,,0.00,VWS V14.01,2013-05-07 20:10:00,
2013-05-07 15:11:00,78.6,47.1,30.08,SE,135,1.1,1.1,33,0.00,,,0.00,VWS V14.01,2013-05-07 20:11:00,
2013-05-07 15:12:00,78.6,47.9,30.08,SE,135,1.5,1.5,34,0.00,,,0.00,VWS V14.01,2013-05-07 20:12:00,
2013-05-07 15:13:00,78.6,47.9,30.08,SE,135,1.5,1.5,34,0.00,,,0.00,VWS V14.01,2013-05-07 20:13:00,
2013-05-07 15:14:00,78.6,46.3,30.08,ESE,112,0.0,1.5,32,0.00,,,0.00,VWS V14.01,2013-05-07 20:14:00,
2013-05-07 15:15:00,78.6,46.3,30.08,ESE,112,0.0,0.0,32,0.00,,,0.00,VWS V14.01,2013-05-07 20:15:00,
2013-05-07 15:16:00,78.9,46.6,30.08,SSW,202,0.4,0.4,32,0.00,,,0.00,VWS V14.01,2013-05-07 20:16:00,
2013-05-07 15:17:00,78.9,46.6,30.08,SSW,202,0.4,0.4,32,0.00,,,0.00,VWS V14.01,2013-05-07 20:17:00,
2013-05-07 15:18:00,79.7,47.3,30.08,SSW,202,0.0,0.4,32,0.00,,,0.00,VWS V14.01,2013-05-07 20:18:00,
2013-05-07 15:19:00,79.7,47.3,30.08,SSW,202,0.0,0.0,32,0.00,,,0.00,VWS V14.01,2013-05-07 20:19:00,
2013-05-07 15:20:00,79.7,47.3,30.08,SSW,202,0.0,0.0,32,0.00,,,0.00,VWS V14.01,2013-05-07 20:20:00,
2013-05-07 15:21:00,80.4,47.9,30.08,SSW,202,0.0,0.0,32,0.00,,,0.00,VWS V14.01,2013-05-07 20:21:00,
2013-05-07 15:22:00,80.4,47.9,30.08,SSW,202,2.2,2.2,32,0.00,,,0.00,VWS V14.01,2013-05-07 20:22:00,
2013-05-07 15:23:00,81.3,48.7,30.08,SSW,202,2.2,2.2,32,0.00,,,0.00,VWS V14.01,2013-05-07 20:23:00,
2013-05-07 15:24:00,81.3,48.7,30.08,SSW,202,2.2,2.2,32,0.00,,,0.00,VWS V14.01,2013-05-07 20:24:00,
2013-05-07 15:25:00,81.3,48.7,30.08,SSW,202,2.2,2.2,32,0.00,,,0.00,VWS V14.01,2013-05-07 20:25:00,
2013-05-07 15:26:00,80.9,47.5,30.08,ENE,68,6.7,6.7,31,0.00,,,0.00,VWS V14.01,2013-05-07 20:26:00,
2013-05-07 15:27:00,79.3,46.1,30.07,NE,45,2.0,6.7,31,0.00,,,0.00,VWS V14.01,2013-05-07 20:27:00,
2013-05-07 15:28:00,79.3,46.1,30.08,NE,45,2.0,2.0,31,0.00,,,0.00,VWS V14.01,2013-05-07 20:28:00,
2013-05-07 15:29:00,78.6,46.3,30.07,East,90,6.7,6.7,32,0.00,,,0.00,VWS V14.01,2013-05-07 20:29:00,
2013-05-07 15:30:00,78.6,46.3,30.07,East,90,6.7,6.7,32,0.00,,,0.00,VWS V14.01,2013-05-07 20:30:00,
2013-05-07 15:31:00,77.9,45.7,30.08,ESE,112,0.0,6.7,32,0.00,,,0.00,VWS V14.01,2013-05-07 20:31:00,
2013-05-07 15:32:00,77.9,45.7,30.07,ESE,112,0.0,0.0,32,0.00,,,0.00,VWS V14.01,2013-05-07 20:32:00,
2013-05-07 15:33:00,78.2,46.0,30.07,ESE,112,0.0,0.0,32,0.00,,,0.00,VWS V14.01,2013-05-07 20:33:00,
2013-05-07 15:34:00,78.2,46.0,30.07,ESE,112,0.0,0.0,32,0.00,,,0.00,VWS V14.01,2013-05-07 20:34:00,
2013-05-07 15:35:00,78.2,46.0,30.07,ESE,112,0.0,0.0,32,0.00,,,0.00,VWS V14.01,2013-05-07 20:35:00,
2013-05-07 15:36:00,78.8,46.5,30.07,SSW,202,2.4,2.4,32,0.00,,,0.00,VWS V14.01,2013-05-07 20:36:00,
2013-05-07 15:37:00,78.8,46.5,30.07,SSW,202,0.0,2.4,32,0.00,,,0.00,VWS V14.01,2013-05-07 20:37:00,
2013-05-07 15:38:00,79.7,47.3,30.07,SSW,202,0.0,0.0,32,0.00,,,0.00,VWS V14.01,2013-05-07 20:38:00,
2013-05-07 15:39:00,79.7,47.3,30.07,SSW,202,0.0,0.0,32,0.00,,,0.00,VWS V14.01,2013-05-07 20:39:00,
2013-05-07 15:40:00,79.7,47.3,30.07,SSW,202,0.0,0.0,32,0.00,,,0.00,VWS V14.01,2013-05-07 20:40:00,
2013-05-07 15:41:00,80.4,47.9,30.07,West,270,0.0,0.0,32,0.00,,,0.00,VWS V14.01,2013-05-07 20:41:00,
2013-05-07 15:42:00,80.7,48.1,30.07,SSW,202,3.8,3.8,32,0.00,,,0.00,VWS V14.01,2013-05-07 20:42:00,
2013-05-07 15:43:00,80.7,48.1,30.07,SSW,202,3.8,3.8,32,0.00,,,0.00,VWS V14.01,2013-05-07 20:43:00,
2013-05-07 15:44:00,81.1,47.6,30.07,SSW,202,0.0,3.8,31,0.00,,,0.00,VWS V14.01,2013-05-07 20:44:00,
2013-05-07 15:45:00,81.1,47.6,30.07,SSW,202,0.0,0.0,31,0.00,,,0.00,VWS V14.01,2013-05-07 20:45:00,
2013-05-07 15:46:00,81.1,45.9,30.07,SSW,202,0.0,0.0,29,0.00,,,0.00,VWS V14.01,2013-05-07 20:46:00,
2013-05-07 15:47:00,81.1,45.9,30.07,SSW,202,0.0,0.0,29,0.00,,,0.00,VWS V14.01,2013-05-07 20:47:00,
2013-05-07 15:48:00,81.3,46.0,30.07,NNW,338,3.5,3.5,29,0.00,,,0.00,VWS V14.01,2013-05-07 20:48:00,
2013-05-07 15:49:00,81.3,46.0,30.07,NNW,338,3.5,3.5,29,0.00,,,0.00,VWS V14.01,2013-05-07 20:49:00,
2013-05-07 15:50:00,81.3,46.0,30.07,NNW,338,3.5,3.5,29,0.00,,,0.00,VWS V14.01,2013-05-07 20:50:00,
2013-05-07 15:51:00,80.9,46.6,30.07,NNE,22,3.5,3.5,30,0.00,,,0.00,VWS V14.01,2013-05-07 20:51:00,
2013-05-07 15:52:00,80.4,46.2,30.07,NNE,22,4.9,4.9,30,0.00,,,0.00,VWS V14.01,2013-05-07 20:52:00,
2013-05-07 15:53:00,80.4,46.2,30.07,NNE,22,4.9,4.9,30,0.00,,,0.00,VWS V14.01,2013-05-07 20:53:00,
2013-05-07 15:54:00,79.7,45.6,30.07,NNE,22,4.9,4.9,30,0.00,,,0.00,VWS V14.01,2013-05-07 20:54:00,
2013-05-07 15:55:00,79.7,45.6,30.07,NNE,22,4.9,4.9,30,0.00,,,0.00,VWS V14.01,2013-05-07 20:55:00,
2013-05-07 15:56:00,79.7,45.6,30.07,WNW,292,1.5,1.5,30,0.00,,,0.00,VWS V14.01,2013-05-07 20:56:00,
2013-05-07 15:57:00,79.8,46.5,30.07,WNW,292,0.0,1.5,31,0.00,,,0.00,VWS V14.01,2013-05-07 20:57:00,
2013-05-07 15:58:00,79.8,46.5,30.07,WNW,292,0.0,0.0,31,0.00,,,0.00,VWS V14.01,2013-05-07 20:58:00,
2013-05-07 15:59:00,80.4,46.2,30.07,NW,315,2.2,2.2,30,0.00,,,0.00,VWS V14.01,2013-05-07 20:59:00,
2013-05-07 16:00:00,80.4,46.2,30.07,NW,315,2.2,2.2,30,0.00,,,0.00,VWS V14.01,2013-05-07 21:00:00,
2013-05-07 16:01:00,80.4,47.0,30.07,WNW,292,0.0,2.2,31,0.00,,,0.00,VWS V14.01,2013-05-07 21:01:00,
2013-05-07 16:02:00,80.4,47.0,30.07,WNW,292,0.0,0.0,31,0.00,,,0.00,VWS V14.01,2013-05-07 21:02:00,
2013-05-07 16:03:00,80.4,47.0,30.07,SE,135,0.6,0.6,31,0.00,,,0.00,VWS V14.01,2013-05-07 21:03:00,
2013-05-07 16:04:00,80.4,47.0,30.07,SE,135,0.6,0.6,31,0.00,,,0.00,VWS V14.01,2013-05-07 21:04:00,
2013-05-07 16:05:00,80.4,47.0,30.07,SE,135,0.6,0.6,31,0.00,,,0.00,VWS V14.01,2013-05-07 21:05:00,
2013-05-07 16:06:00,79.8,48.2,30.07,SE,135,1.7,1.7,33,0.00,,,0.00,VWS V14.01,2013-05-07 21:06:00,
2013-05-07 16:07:00,79.8,48.2,30.07,SE,135,0.0,1.7,33,0.00,,,0.00,VWS V14.01,2013-05-07 21:07:00,
2013-05-07 16:08:00,79.5,47.1,30.07,SE,135,0.0,0.0,32,0.00,,,0.00,VWS V14.01,2013-05-07 21:08:00,
2013-05-07 16:09:00,79.5,47.1,30.07,East,90,0.0,0.0,32,0.00,,,0.00,VWS V14.01,2013-05-07 21:09:00,
2013-05-07 16:10:00,79.5,47.1,30.07,East,90,0.0,0.0,32,0.00,,,0.00,VWS V14.01,2013-05-07 21:10:00,
2013-05-07 16:11:00,79.1,46.7,30.07,East,90,0.0,0.0,32,0.00,,,0.00,VWS V14.01,2013-05-07 21:11:00,
2013-05-07 16:12:00,78.9,45.7,30.07,East,90,3.3,3.3,31,0.00,,,0.00,VWS V14.01,2013-05-07 21:12:00,
2013-05-07 16:13:00,78.9,45.7,30.07,East,90,3.3,3.3,31,0.00,,,0.00,VWS V14.01,2013-05-07 21:13:00,
2013-05-07 16:14:00,78.6,47.1,30.07,ESE,112,5.1,5.1,33,0.00,,,0.00,VWS V14.01,2013-05-07 21:14:00,
2013-05-07 16:15:00,78.6,47.1,30.07,ESE,112,5.1,5.1,33,0.00,,,0.00,VWS V14.01,2013-05-07 21:15:00,
2013-05-07 16:16:00,78.0,45.8,30.07,ESE,112,2.4,5.1,32,0.00,,,0.00,VWS V14.01,2013-05-07 21:16:00,
2013-05-07 16:17:00,78.0,45.8,30.07,ESE,112,2.4,2.4,32,0.00,,,0.00,VWS V14.01,2013-05-07 21:17:00,
2013-05-07 16:18:00,78.0,45.8,30.07,ESE,112,0.6,2.4,32,0.00,,,0.00,VWS V14.01,2013-05-07 21:18:00,
2013-05-07 16:19:00,78.0,45.8,30.07,ESE,112,0.6,0.6,32,0.00,,,0.00,VWS V14.01,2013-05-07 21:19:00,
2013-05-07 16:20:00,78.0,45.8,30.07,ESE,112,0.6,0.6,32,0.00,,,0.00,VWS V14.01,2013-05-07 21:20:00,
2013-05-07 16:21:00,78.2,46.8,30.06,ESE,112,1.5,1.5,33,0.00,,,0.00,VWS V14.01,2013-05-07 21:21:00,
2013-05-07 16:22:00,78.4,47.0,30.07,SE,135,1.5,1.5,33,0.00,,,0.00,VWS V14.01,2013-05-07 21:22:00,
2013-05-07 16:23:00,78.4,47.0,30.07,SE,135,1.5,1.5,33,0.00,,,0.00,VWS V14.01,2013-05-07 21:23:00,
2013-05-07 16:24:00,78.4,46.1,30.06,SE,135,1.5,1.5,32,0.00,,,0.00,VWS V14.01,2013-05-07 21:24:00,
2013-05-07 16:25:00,78.4,46.1,30.06,SE,135,1.5,1.5,32,0.00,,,0.00,VWS V14.01,2013-05-07 21:25:00,
2013-05-07 16:26:00,78.6,46.3,30.06,SE,135,0.0,0.0,32,0.00,,,0.00,VWS V14.01,2013-05-07 21:26:00,
2013-05-07 16:27:00,79.5,46.2,30.07,WSW,248,0.0,0.0,31,0.00,,,0.00,VWS V14.01,2013-05-07 21:27:00,
2013-05-07 16:28:00,79.5,46.2,30.07,WSW,248,0.0,0.0,31,0.00,,,0.00,VWS V14.01,2013-05-07 21:28:00,
2013-05-07 16:29:00,80.4,47.9,30.07,WSW,248,0.0,0.0,32,0.00,,,0.00,VWS V14.01,2013-05-07 21:29:00,
2013-05-07 16:30:00,80.4,47.9,30.07,WSW,248,0.0,0.0,32,0.00,,,0.00,VWS V14.01,2013-05-07 21:30:00,
2013-05-07 16:31:00,80.7,49.0,30.07,WSW,248,0.0,0.0,33,0.00,,,0.00,VWS V14.01,2013-05-07 21:31:00,
2013-05-07 16:32:00,80.7,49.0,30.07,WSW,248,0.0,0.0,33,0.00,,,0.00,VWS V14.01,2013-05-07 21:32:00,
2013-05-07 16:33:00,81.3,48.7,30.07,WSW,248,0.0,0.0,32,0.00,,,0.00,VWS V14.01,2013-05-07 21:33:00,
2013-05-07 16:34:00,81.3,48.7,30.07,WSW,248,0.0,0.0,32,0.00,,,0.00,VWS V14.01,2013-05-07 21:34:00,
2013-05-07 16:35:00,81.3,48.7,30.07,WSW,248,0.0,0.0,32,0.00,,,0.00,VWS V14.01,2013-05-07 21:35:00,
2013-05-07 16:36:00,81.6,48.1,30.06,SE,135,2.9,2.9,31,0.00,,,0.00,VWS V14.01,2013-05-07 21:36:00,
2013-05-07 16:37:00,80.4,47.0,30.06,SSE,158,1.1,2.9,31,0.00,,,0.00,VWS V14.01,2013-05-07 21:37:00,
2013-05-07 16:38:00,80.4,47.0,30.07,SSE,158,1.1,1.1,31,0.00,,,0.00,VWS V14.01,2013-05-07 21:38:00,
2013-05-07 16:39:00,80.4,47.0,30.06,SSE,158,0.0,1.1,31,0.00,,,0.00,VWS V14.01,2013-05-07 21:39:00,
2013-05-07 16:40:00,80.4,47.0,30.06,SSE,158,0.0,0.0,31,0.00,,,0.00,VWS V14.01,2013-05-07 21:40:00,
2013-05-07 16:41:00,79.8,46.5,30.06,SSE,158,0.0,0.0,31,0.00,,,0.00,VWS V14.01,2013-05-07 21:41:00,
2013-05-07 16:42:00,80.2,47.7,30.07,ESE,112,1.7,1.7,32,0.00,,,0.00,VWS V14.01,2013-05-07 21:42:00,
2013-05-07 16:43:00,80.2,47.7,30.06,ESE,112,1.7,1.7,32,0.00,,,0.00,VWS V14.01,2013-05-07 21:43:00,
2013-05-07 16:44:00,79.5,47.1,30.06,East,90,2.9,2.9,32,0.00,,,0.00,VWS V14.01,2013-05-07 21:44:00,
2013-05-07 16:45:00,79.5,47.1,30.06,East,90,2.9,2.9,32,0.00,,,0.00,VWS V14.01,2013-05-07 21:45:00,
2013-05-07 16:46:00,79.3,49.3,30.06,East,90,2.9,2.9,35,0.00,,,0.00,VWS V14.01,2013-05-07 21:46:00,
2013-05-07 16:47:00,79.3,49.3,30.06,East,90,2.9,2.9,35,0.00,,,0.00,VWS V14.01,2013-05-07 21:47:00,
2013-05-07 16:48:00,78.9,46.6,30.06,ENE,68,0.6,2.9,32,0.00,,,0.00,VWS V14.01,2013-05-07 21:48:00,
2013-05-07 16:58:00,79.9,46.6,30.08,WNW,292,0.0,0.0,31,99.99,,,99.99,VWS V14.01,2013-05-07 21:58:00,
2013-05-07 17:58:00,78.6,45.5,30.06,NNE,22,2.5,2.5,31,99.99,,,99.99,VWS V14.01,2013-05-07 22:58:00,
2013-05-07 18:58:00,79.9,47.4,30.06,WNW,292,0.0,2.5,32,0.00,,,99.99,VWS V14.01,2013-05-07 23:58:00,
2013-05-07 19:58:00,77.7,45.5,30.06,East,90,0.0,0.0,32,0.00,,,99.99,VWS V14.01,2013-05-08 00:58:00,
2013-05-07 20:58:00,71.8,45.5,30.07,ESE,112,0.0,0.0,39,0.00,,,99.99,VWS V14.01,2013-05-08 01:58:00,
2013-05-07 22:53:00,64.4,45.4,12.35,ESE,112,0.0,0.0,50,0.00,,,0.00,VWS V14.01,2013-05-08 03:53:00,
2013-05-07 22:58:00,62.2,44.9,30.07,ESE,112,0.0,0.0,53,0.00,,,0.00,VWS V14.01,2013-05-08 03:58:00,
2013-05-07 22:59:00,62.2,45.4,30.07,ESE,112,0.0,0.0,54,0.00,,,0.00,VWS V14.01,2013-05-08 03:59:00,
2013-05-07 23:00:00,62.2,45.4,30.07,ESE,112,0.0,0.0,54,0.00,,,0.00,VWS V14.01,2013-05-08 04:00:00,
2013-05-07 23:01:00,62.2,45.4,30.07,ESE,112,0.0,0.0,54,0.00,,,0.00,VWS V14.01,2013-05-08 04:01:00,
2013-05-07 23:02:00,62.2,45.4,30.07,ESE,112,0.0,0.0,54,0.00,,,0.00,VWS V14.01,2013-05-08 04:02:00,
2013-05-07 23:03:00,62.0,45.2,30.07,ESE,112,0.0,0.0,54,0.00,,,0.00,VWS V14.01,2013-05-08 04:03:00,
2013-05-07 23:04:00,62.0,45.2,30.07,ESE,112,0.0,0.0,54,0.00,,,0.00,VWS V14.01,2013-05-08 04:04:00,
2013-05-07 23:05:00,62.2,45.4,30.07,ESE,112,0.0,0.0,54,0.00,,,0.00,VWS V14.01,2013-05-08 04:05:00,
2013-05-07 23:06:00,62.2,45.4,30.07,ESE,112,0.0,0.0,54,0.00,,,0.00,VWS V14.01,2013-05-08 04:06:00,
2013-05-07 23:07:00,62.2,45.4,30.07,ESE,112,0.0,0.0,54,0.00,,,0.00,VWS V14.01,2013-05-08 04:07:00,
2013-05-07 23:08:00,62.0,45.2,30.07,ESE,112,0.0,0.0,54,0.00,,,0.00,VWS V14.01,2013-05-08 04:08:00,
2013-05-07 23:09:00,62.0,45.2,30.07,ESE,112,0.0,0.0,54,0.00,,,0.00,VWS V14.01,2013-05-08 04:09:00,
2013-05-07 23:10:00,62.0,45.2,30.07,ESE,112,0.0,0.0,54,0.00,,,0.00,VWS V14.01,2013-05-08 04:10:00,
2013-05-07 23:11:00,62.0,45.2,30.07,ESE,112,0.0,0.0,54,0.00,,,0.00,VWS V14.01,2013-05-08 04:11:00,
2013-05-07 23:12:00,62.0,45.2,30.07,ESE,112,0.0,0.0,54,0.00,,,0.00,VWS V14.01,2013-05-08 04:12:00,
2013-05-07 23:13:00,62.0,45.2,30.07,ESE,112,0.0,0.0,54,0.00,,,0.00,VWS V14.01,2013-05-08 04:13:00,
2013-05-07 23:14:00,61.8,45.0,30.07,ESE,112,0.0,0.0,54,0.00,,,0.00,VWS V14.01,2013-05-08 04:14:00,
2013-05-07 23:15:00,61.8,45.0,30.07,ESE,112,0.0,0.0,54,0.00,,,0.00,VWS V14.01,2013-05-08 04:15:00,
2013-05-07 23:16:00,61.8,45.0,30.07,ESE,112,0.0,0.0,54,0.00,,,0.00,VWS V14.01,2013-05-08 04:16:00,
2013-05-07 23:17:00,61.8,45.0,30.07,ESE,112,0.0,0.0,54,0.00,,,0.00,VWS V14.01,2013-05-08 04:17:00,
2013-05-07 23:18:00,61.8,45.0,30.07,ESE,112,0.0,0.0,54,0.00,,,0.00,VWS V14.01,2013-05-08 04:18:00,
2013-05-07 23:19:00,61.8,45.0,30.07,ESE,112,0.0,0.0,54,0.00,,,0.00,VWS V14.01,2013-05-08 04:19:00,
2013-05-07 23:20:00,61.8,45.0,30.07,ESE,112,0.0,0.0,54,0.00,,,0.00,VWS V14.01,2013-05-08 04:20:00,
2013-05-07 23:21:00,61.8,45.0,30.07,ESE,112,0.0,0.0,54,0.00,,,0.00,VWS V14.01,2013-05-08 04:21:00,
2013-05-07 23:22:00,61.8,45.5,30.07,ESE,112,0.0,0.0,55,0.00,,,0.00,VWS V14.01,2013-05-08 04:22:00,
2013-05-07 23:23:00,61.8,45.5,30.07,ESE,112,0.0,0.0,55,0.00,,,0.00,VWS V14.01,2013-05-08 04:23:00,
2013-05-07 23:24:00,61.8,45.5,30.07,ESE,112,0.0,0.0,55,0.00,,,0.00,VWS V14.01,2013-05-08 04:24:00,
2013-05-07 23:25:00,61.7,46.3,30.07,South,180,0.0,0.0,57,0.00,,,0.00,VWS V14.01,2013-05-08 04:25:00,
2013-05-07 23:26:00,61.7,46.3,30.07,South,180,0.0,0.0,57,0.00,,,0.00,VWS V14.01,2013-05-08 04:26:00,
2013-05-07 23:27:00,61.3,46.4,30.07,South,180,0.0,0.0,58,0.00,,,0.00,VWS V14.01,2013-05-08 04:27:00,
2013-05-07 23:28:00,61.3,46.4,30.07,South,180,0.0,0.0,58,0.00,,,0.00,VWS V14.01,2013-05-08 04:28:00,
2013-05-07 23:29:00,61.1,45.8,30.07,South,180,0.0,0.0,57,0.00,,,0.00,VWS V14.01,2013-05-08 04:29:00,
2013-05-07 23:30:00,61.1,45.8,30.07,South,180,0.0,0.0,57,0.00,,,0.00,VWS V14.01,2013-05-08 04:30:00,
2013-05-07 23:31:00,60.9,45.1,30.07,South,180,0.0,0.0,56,0.00,,,0.00,VWS V14.01,2013-05-08 04:31:00,
2013-05-07 23:32:00,60.9,45.1,30.07,South,180,0.0,0.0,56,0.00,,,0.00,VWS V14.01,2013-05-08 04:32:00,
2013-05-07 23:33:00,60.9,45.6,30.07,South,180,0.0,0.0,57,0.00,,,0.00,VWS V14.01,2013-05-08 04:33:00,
2013-05-07 23:34:00,60.9,45.6,30.07,South,180,0.0,0.0,57,0.00,,,0.00,VWS V14.01,2013-05-08 04:34:00,
2013-05-07 23:35:00,60.6,44.8,30.07,South,180,0.0,0.0,56,0.00,,,0.00,VWS V14.01,2013-05-08 04:35:00,
2013-05-07 23:36:00,60.6,44.8,30.07,South,180,0.0,0.0,56,0.00,,,0.00,VWS V14.01,2013-05-08 04:36:00,
2013-05-07 23:37:00,60.6,44.8,30.07,South,180,0.0,0.0,56,0.00,,,0.00,VWS V14.01,2013-05-08 04:37:00,
2013-05-07 23:38:00,60.6,44.8,30.07,South,180,0.0,0.0,56,0.00,,,0.00,VWS V14.01,2013-05-08 04:38:00,
2013-05-07 23:39:00,60.6,44.8,30.07,South,180,0.0,0.0,56,0.00,,,0.00,VWS V14.01,2013-05-08 04:39:00,
2013-05-07 23:40:00,60.9,45.1,30.07,South,180,0.0,0.0,56,0.00,,,0.00,VWS V14.01,2013-05-08 04:40:00,
2013-05-07 23:41:00,60.9,45.1,30.07,South,180,0.0,0.0,56,0.00,,,0.00,VWS V14.01,2013-05-08 04:41:00,
2013-05-07 23:42:00,61.1,44.8,30.07,South,180,0.0,0.0,55,0.00,,,0.00,VWS V14.01,2013-05-08 04:42:00,
2013-05-07 23:43:00,61.1,44.8,30.07,South,180,0.0,0.0,55,0.00,,,0.00,VWS V14.01,2013-05-08 04:43:00,
2013-05-07 23:44:00,61.1,45.3,30.07,South,180,0.0,0.0,56,0.00,,,0.00,VWS V14.01,2013-05-08 04:44:00,
2013-05-07 23:45:00,61.1,45.3,30.07,South,180,0.0,0.0,56,0.00,,,0.00,VWS V14.01,2013-05-08 04:45:00,
2013-05-07 23:46:00,61.1,45.3,30.07,South,180,0.0,0.0,56,0.00,,,0.00,VWS V14.01,2013-05-08 04:46:00,
2013-05-07 23:47:00,61.1,45.3,30.07,South,180,0.0,0.0,56,0.00,,,0.00,VWS V14.01,2013-05-08 04:47:00,
2013-05-07 23:48:00,60.9,45.1,30.07,South,180,0.0,0.0,56,0.00,,,0.00,VWS V14.01,2013-05-08 04:48:00,
2013-05-07 23:49:00,60.9,45.1,30.07,South,180,0.0,0.0,56,0.00,,,0.00,VWS V14.01,2013-05-08 04:49:00,
2013-05-07 23:50:00,60.6,45.3,30.07,South,180,0.0,0.0,57,0.00,,,0.00,VWS V14.01,2013-05-08 04:50:00,
2013-05-07 23:51:00,60.6,45.3,30.07,South,180,0.0,0.0,57,0.00,,,0.00,VWS V14.01,2013-05-08 04:51:00,
2013-05-07 23:52:00,60.6,45.3,30.07,South,180,0.0,0.0,57,0.00,,,0.00,VWS V14.01,2013-05-08 04:52:00,
2013-05-07 23:53:00,60.4,45.1,30.07,South,180,0.0,0.0,57,0.00,,,0.00,VWS V14.01,2013-05-08 04:53:00,
2013-05-07 23:54:00,60.4,45.1,30.07,South,180,0.0,0.0,57,0.00,,,0.00,VWS V14.01,2013-05-08 04:54:00,
2013-05-07 23:55:00,60.4,45.1,30.06,South,180,0.0,0.0,57,0.00,,,0.00,VWS V14.01,2013-05-08 04:55:00,
2013-05-07 23:56:00,60.4,45.1,30.06,South,180,0.0,0.0,57,0.00,,,0.00,VWS V14.01,2013-05-08 04:56:00,
2013-05-07 23:57:00,60.0,45.2,30.06,South,180,0.0,0.0,58,0.00,,,0.00,VWS V14.01,2013-05-08 04:57:00,
2013-05-07 23:58:00,60.0,45.2,30.06,South,180,0.0,0.0,58,0.00,,,0.00,VWS V14.01,2013-05-08 04:58:00,
2013-05-07 23:59:00,60.0,45.2,30.06,South,180,0.0,0.0,58,0.00,,,0.00,VWS V14.01,2013-05-08 04:59:00,